FW4770 Weather Reports


time (UTC)temp
F
wind
direction
speed
knots
gust
knots
rain 1hr
in
rain 24hr
in
rain mn
in
humidity
%
barometer
mb
20260902102712 67 302 2.6 6.1 0.00 0.01 0.01 89 1014.6
20260902102616 67 271 2.6 6.1 0.00 0.01 0.01 89 1014.6
20260902102500 67 271 2.6 6.1 0.00 0.01 0.01 89 1014.5
20260902102409 67 271 3.5 6.1 0.00 0.01 0.01 89 1014.5
20260902102313 67 275 3.5 5.2 0.00 0.01 0.01 89 1014.6
20260902102157 67 303 2.6 5.2 0.00 0.01 0.01 89 1014.6
20260902102101 67 259 2.6 5.2 0.00 0.01 0.01 89 1014.6
20260902102006 67 252 2.6 5.2 0.00 0.01 0.01 89 1014.6
20260902101931 67 252 2.6 5.2 0.00 0.01 0.01 89 1014.6
20260902101759 67 292 2.6 5.2 0.00 0.01 0.01 89 1014.6
20260902101724 67 270 2.6 5.2 0.00 0.01 0.01 89 1014.5
20260902101608 67 269 3.5 5.2 0.00 0.01 0.01 89 1014.5
20260902101513 67 271 3.5 4.3 0.00 0.01 0.01 89 1014.4
20260902101438 67 294 2.6 4.3 0.00 0.01 0.01 89 1014.3
20260902101342 67 284 2.6 5.2 0.00 0.01 0.01 89 1014.3
20260902101158 67 275 2.6 4.3 0.00 0.01 0.01 89 1014.2
20260902101103 67 267 2.6 4.3 0.00 0.01 0.01 89 1014.2
20260902101012 67 267 2.6 4.3 0.00 0.01 0.01 89 1014.2
20260902100917 67 269 2.6 4.3 0.00 0.01 0.01 89 1014.2
20260902100821 67 269 2.6 4.3 0.00 0.01 0.01 89 1014.2
20260902100659 67 269 2.6 4.3 0.00 0.01 0.01 88 1014.2
20260902100604 67 265 2.6 4.3 0.00 0.01 0.01 88 1014.1
20260902100507 67 264 2.6 4.3 0.00 0.01 0.01 88 1014.1
20260902100356 67 174 2.6 2.6 0.00 0.01 0.01 87 1013.9
20260902100321 67 173 1.7 2.6 0.00 0.01 0.01 87 1013.9
20260902100159 67 174 0.9 2.6 0.00 0.01 0.01 87 1013.8
20260902100104 67 173 0.0 1.7 0.00 0.01 0.01 87 1013.7
20260902100009 67 173 0.9 1.7 0.00 0.01 0.01 87 1013.7
20260902095913 67 173 0.9 1.7 0.00 0.01 0.01 87 1013.7
20260902095802 67 173 0.9 1.7 0.00 0.01 0.01 87 1013.4
20260902095707 67 173 0.9 1.7 0.00 0.01 0.01 87 1013.4
20260902095612 67 173 0.0 1.7 0.00 0.01 0.01 87 1013.3
20260902095517 67 173 0.0 1.7 0.00 0.01 0.01 87 1013.4
20260902095442 67 173 0.0 1.7 0.00 0.01 0.01 87 1013.3
20260902095259 67 173 0.9 1.7 0.00 0.01 0.01 87 1013.1
20260902095202 67 173 0.9 1.7 0.00 0.01 0.01 87 1013.1
20260902095111 67 173 0.9 1.7 0.00 0.01 0.01 87 1013.1
20260902095016 67 173 0.9 1.7 0.00 0.01 0.01 87 1013.1
20260902094859 67 173 0.9 2.6 0.00 0.01 0.01 87 1013.1
20260902094804 67 173 0.9 2.6 0.00 0.01 0.01 86 1013.1
20260902094709 68 173 0.9 2.6 0.00 0.01 0.01 86 1013.1
20260902094614 68 173 0.9 2.6 0.00 0.01 0.01 86 1013.1
20260902094503 68 173 0.9 2.6 0.00 0.01 0.01 86 1013.1
20260902094408 68 174 0.9 2.6 0.00 0.01 0.01 86 1013.1
20260902094313 68 174 0.9 2.6 0.00 0.01 0.01 86 1013.1
20260902094217 68 174 1.7 2.6 0.00 0.01 0.01 86 1013.1
20260902094055 68 174 1.7 2.6 0.00 0.01 0.01 86 1013.1
20260902094000 68 174 0.9 3.5 0.00 0.01 0.01 86 1013.0
20260902093909 68 174 0.9 3.5 0.00 0.01 0.01 86 1013.0
20260902093814 68 174 0.9 3.5 0.00 0.01 0.01 86 1013.0
20260902093719 68 173 0.9 3.5 0.00 0.01 0.01 86 1013.1
20260902093602 68 173 1.7 3.5 0.00 0.01 0.01 86 1013.0
20260902093527 68 174 1.7 4.3 0.00 0.01 0.01 86 1013.0
20260902093431 68 174 1.7 5.2 0.00 0.01 0.01 86 1013.0
20260902093334 68 175 1.7 6.1 0.00 0.01 0.01 86 1012.8
20260902093202 68 175 2.6 6.1 0.00 0.01 0.01 86 1012.8
20260902093107 68 175 2.6 6.1 0.00 0.01 0.01 86 1012.8
20260902093012 68 177 1.7 6.1 0.00 0.01 0.01 86 1012.7
20260902092917 68 179 2.6 6.1 0.00 0.01 0.01 86 1012.8
20260902092801 68 179 3.5 6.1 0.00 0.01 0.01 86 1012.8
20260902092706 68 182 4.3 6.1 0.00 0.01 0.01 86 1012.8
20260902092631 68 182 3.5 6.1 0.00 0.01 0.01 86 1012.8
20260902092457 68 183 3.5 6.1 0.00 0.01 0.01 86 1013.0
20260902092401 68 171 4.3 5.2 0.00 0.01 0.01 86 1012.9
20260902092326 68 177 3.5 5.2 0.00 0.01 0.01 86 1012.9
20260902092210 68 188 3.5 5.2 0.00 0.01 0.01 86 1012.9
20260902092135 68 182 2.6 4.3 0.00 0.01 0.01 86 1013.0
20260902092038 68 171 2.6 4.3 0.00 0.01 0.01 86 1013.0
20260902091855 68 180 2.6 4.3 0.00 0.01 0.01 86 1013.0
20260902091800 68 178 2.6 4.3 0.00 0.01 0.01 86 1013.0
20260902091708 68 177 3.5 4.3 0.00 0.01 0.01 85 1013.0
20260902091613 68 178 3.5 4.3 0.00 0.01 0.01 85 1013.0
20260902091458 68 177 2.6 4.3 0.00 0.01 0.01 85 1013.2
20260902091402 68 175 2.6 5.2 0.00 0.01 0.01 85 1013.2
20260902091307 68 173 2.6 4.3 0.00 0.01 0.01 86 1013.2
20260902091156 68 173 2.6 4.3 0.00 0.01 0.01 86 1013.2
20260902091101 68 170 2.6 4.3 0.00 0.01 0.01 86 1013.2
20260902091006 68 172 2.6 4.3 0.00 0.01 0.01 86 1013.2
20260902090930 68 173 2.6 4.3 0.00 0.01 0.01 86 1013.2
20260902090813 68 173 2.6 4.3 0.00 0.01 0.01 86 1013.1
20260902090738 68 195 2.6 4.3 0.00 0.01 0.01 86 1013.1
20260902090642 68 168 2.6 5.2 0.00 0.01 0.01 86 1013.1
20260902090459 68 167 3.5 5.2 0.00 0.01 0.01 87 1013.0
20260902090408 68 163 3.5 4.3 0.00 0.01 0.01 87 1013.0
20260902090313 68 173 3.5 5.2 0.00 0.01 0.01 87 1013.1
20260902090158 68 169 2.6 4.3 0.00 0.01 0.01 87 1013.2
20260902090007 68 171 3.5 5.2 0.00 0.01 0.01 87 1013.3
20260902085855 68 163 2.6 5.2 0.01 0.01 0.01 88 1013.4
20260902085800 68 163 3.5 5.2 0.01 0.01 0.01 88 1013.4
20260902085705 68 165 2.6 5.2 0.01 0.01 0.01 88 1013.5
20260902085610 68 169 2.6 5.2 0.01 0.01 0.01 89 1013.5
20260902085455 68 177 2.6 3.5 0.01 0.01 0.01 89 1013.6
20260902085359 68 177 2.6 3.5 0.01 0.01 0.01 89 1013.7
20260902085308 68 178 1.7 3.5 0.01 0.01 0.01 89 1013.7
20260902085213 68 182 1.7 3.5 0.01 0.01 0.01 89 1013.7
20260902085059 68 182 1.7 3.5 0.01 0.01 0.01 89 1013.7
20260902085003 68 182 1.7 3.5 0.01 0.01 0.01 89 1013.8
20260902084908 68 182 1.7 3.5 0.01 0.01 0.01 89 1013.8
20260902084813 68 182 1.7 3.5 0.01 0.01 0.01 89 1013.8
20260902084702 68 182 2.6 3.5 0.01 0.01 0.01 89 1013.9
20260902084607 68 182 2.6 3.5 0.01 0.01 0.01 89 1013.9
20260902084512 68 182 1.7 3.5 0.01 0.01 0.01 89 1013.9
20260902084417 68 182 2.6 3.5 0.01 0.01 0.01 89 1013.9
20260902084301 68 181 1.7 3.5 0.01 0.01 0.01 89 1013.8
20260902084205 68 181 1.7 3.5 0.01 0.01 0.01 89 1013.7
20260902084114 68 181 0.9 3.5 0.01 0.01 0.01 89 1013.7
20260902084019 68 181 0.9 3.5 0.01 0.01 0.01 89 1013.7
20260902083856 68 181 1.7 3.5 0.01 0.01 0.01 89 1013.7
20260902083821 68 181 1.7 3.5 0.01 0.01 0.01 88 1013.8
20260902083704 68 181 1.7 3.5 0.01 0.01 0.01 88 1013.8
20260902083609 68 181 1.7 2.6 0.01 0.01 0.01 88 1013.8
20260902083458 68 181 1.7 1.7 0.01 0.01 0.01 88 1013.8
20260902083403 68 181 1.7 1.7 0.01 0.01 0.01 88 1013.9
20260902083308 68 181 1.7 1.7 0.01 0.01 0.01 88 1013.9
20260902083213 68 181 1.7 1.7 0.01 0.01 0.01 88 1013.9
20260902083057 68 181 1.7 1.7 0.01 0.01 0.01 88 1014.0
20260902083002 68 181 1.7 1.7 0.01 0.01 0.01 88 1014.0
20260902082911 68 181 1.7 1.7 0.01 0.01 0.01 88 1014.0
20260902082756 68 181 1.7 1.7 0.01 0.01 0.01 88 1014.2
20260902082701 68 181 0.9 1.7 0.01 0.01 0.01 87 1014.1
20260902082605 68 181 0.9 1.7 0.01 0.01 0.01 87 1014.1
20260902082509 68 181 0.0 1.7 0.01 0.01 0.01 87 1014.1
20260902082414 68 181 0.0 2.6 0.01 0.01 0.01 87 1014.1
20260902082308 68 181 0.0 2.6 0.01 0.01 0.01 87 1014.2
20260902082208 68 181 0.0 2.6 0.01 0.01 0.01 87 1014.2
20260902082113 68 181 0.0 3.5 0.01 0.01 0.01 87 1014.2
20260902081958 68 181 0.0 3.5 0.01 0.01 0.01 87 1014.0
20260902081903 68 181 0.0 3.5 0.01 0.01 0.01 87 1014.1
20260902081808 68 181 0.9 3.5 0.01 0.01 0.01 87 1014.1
20260902081656 68 181 0.9 3.5 0.01 0.01 0.01 87 1014.0
20260902081601 68 181 0.9 3.5 0.01 0.01 0.01 87 1014.0
20260902081505 68 181 0.9 3.5 0.01 0.01 0.01 87 1014.0
20260902081410 68 181 1.7 3.5 0.01 0.01 0.01 87 1014.0
20260902081255 68 181 1.7 3.5 0.01 0.01 0.01 87 1013.9
20260902081219 68 192 1.7 3.5 0.01 0.01 0.01 87 1013.9
20260902081106 68 192 1.7 3.5 0.01 0.01 0.01 87 1013.9
20260902081011 68 192 2.6 3.5 0.01 0.01 0.01 87 1013.9
20260902080855 68 193 2.6 3.5 0.01 0.01 0.01 87 1013.9
20260902080819 68 192 2.6 3.5 0.01 0.01 0.01 87 1013.9
20260902080722 68 192 2.6 3.5 0.01 0.01 0.01 87 1013.9
20260902080559 68 192 3.5 3.5 0.01 0.01 0.01 87 1013.9
20260902080508 68 204 3.5 3.5 0.01 0.01 0.01 86 1013.9
20260902080413 69 204 3.5 3.5 0.01 0.01 0.01 87 1013.9
20260902080257 69 204 2.6 3.5 0.01 0.01 0.01 87 1013.9
20260902080202 69 203 2.6 3.5 0.01 0.01 0.01 87 1014.1
20260902080127 69 204 1.7 3.5 0.01 0.01 0.01 86 1014.1
20260902080011 69 200 2.6 3.5 0.00 0.00 0.00 86 1014.0
20260902075935 69 200 1.7 3.5 0.00 0.00 0.00 86 1014.0
20260902075803 69 200 1.7 4.3 0.00 0.00 0.00 86 1014.1
20260902075708 69 200 1.7 4.3 0.00 0.00 0.00 85 1014.1
20260902075613 69 200 1.7 4.3 0.00 0.00 0.00 85 1014.0
20260902075458 69 200 2.6 4.3 0.00 0.00 0.00 85 1014.0
20260902075403 69 200 2.6 5.2 0.00 0.00 0.00 85 1014.0
20260902075308 69 200 2.6 5.2 0.00 0.00 0.00 85 1014.0
20260902075217 69 199 2.6 5.2 0.00 0.00 0.00 85 1014.0
20260902075121 69 198 2.6 5.2 0.00 0.00 0.00 85 1014.0
20260902074959 69 197 2.6 5.2 0.00 0.00 0.00 85 1014.0
20260902074923 69 197 2.6 5.2 0.00 0.00 0.00 85 1014.0
20260902074807 69 207 3.5 5.2 0.00 0.00 0.00 85 1014.0
20260902074732 69 209 3.5 6.1 0.00 0.00 0.00 85 1014.1
20260902074556 69 200 2.6 6.1 0.00 0.00 0.00 86 1014.1
20260902074525 69 226 2.6 6.1 0.00 0.00 0.00 86 1014.1
20260902074429 69 226 2.6 6.1 0.00 0.00 0.00 86 1014.1
20260902074313 69 226 2.6 6.1 0.00 0.00 0.00 86 1014.2
20260902074158 69 216 3.5 6.1 0.00 0.00 0.00 86 1014.1
20260902074103 69 217 3.5 6.1 0.00 0.00 0.00 87 1014.1
20260902074026 69 213 4.3 6.1 0.00 0.00 0.00 87 1014.1
20260902073910 69 247 4.3 7.8 0.00 0.00 0.00 87 1014.1
20260902073759 68 217 4.3 7.8 0.00 0.00 0.00 87 1014.1
20260902073704 68 208 4.3 7.8 0.00 0.00 0.00 88 1014.3
20260902073608 68 196 4.3 7.8 0.00 0.00 0.00 88 1014.3
20260902073512 68 219 3.5 7.8 0.00 0.00 0.00 89 1014.3
20260902073357 68 218 4.3 7.8 0.00 0.00 0.00 89 1014.5
20260902073322 68 217 5.2 7.8 0.00 0.00 0.00 89 1014.5
20260902073210 68 195 5.2 7.8 0.00 0.00 0.00 89 1014.5
20260902073114 68 238 5.2 7.8 0.00 0.00 0.00 89 1014.5
20260902072959 68 257 4.3 7.8 0.00 0.00 0.00 90 1014.5
20260902072903 68 254 3.5 5.2 0.00 0.00 0.00 90 1014.5
20260902072808 68 221 3.5 5.2 0.00 0.00 0.00 90 1014.5
20260902072713 68 217 3.5 5.2 0.00 0.00 0.00 90 1014.5
20260902072602 68 232 3.5 5.2 0.00 0.00 0.00 90 1014.5
20260902072507 68 224 2.6 5.2 0.00 0.00 0.00 90 1014.5
20260902072412 68 223 3.5 5.2 0.00 0.00 0.00 90 1014.5
20260902072317 68 237 3.5 5.2 0.00 0.00 0.00 90 1014.6
20260902072200 68 234 3.5 5.2 0.00 0.00 0.00 90 1014.6
20260902072103 68 235 3.5 5.2 0.00 0.00 0.00 90 1014.6
20260902072012 68 237 2.6 5.2 0.00 0.00 0.00 90 1014.6
20260902071916 68 217 2.6 4.3 0.00 0.00 0.00 89 1014.6
20260902071755 68 217 3.5 4.3 0.00 0.00 0.00 89 1014.6
20260902071700 68 215 3.5 4.3 0.00 0.00 0.00 89 1014.6
20260902071603 68 215 3.5 4.3 0.00 0.00 0.00 89 1014.5
20260902071508 68 215 3.5 4.3 0.00 0.00 0.00 89 1014.5
20260902071357 68 215 3.5 4.3 0.00 0.00 0.00 89 1014.5
20260902071300 68 221 3.5 4.3 0.00 0.00 0.00 89 1014.6
20260902071205 68 223 3.5 4.3 0.00 0.00 0.00 89 1014.6
20260902071110 68 225 3.5 4.3 0.00 0.00 0.00 89 1014.7
20260902071035 68 225 3.5 4.3 0.00 0.00 0.00 89 1014.7
20260902070859 68 230 3.5 4.3 0.00 0.00 0.00 89 1014.8
20260902070824 68 230 2.6 3.5 0.00 0.00 0.00 89 1014.8
20260902070708 68 230 2.6 3.5 0.00 0.00 0.00 89 1014.8
20260902070618 68 232 2.6 3.5 0.00 0.00 0.00 88 1014.9
20260902070455 68 232 2.6 3.5 0.00 0.00 0.00 88 1015.0
20260902070420 68 232 2.6 4.3 0.00 0.00 0.00 88 1015.0
20260902070258 68 232 1.7 6.1 0.00 0.00 0.00 88 1014.9
20260902070203 68 232 1.7 6.1 0.00 0.00 0.00 88 1015.0
20260902070107 68 232 1.7 6.1 0.00 0.00 0.00 88 1015.0
20260902065956 67 232 1.7 6.1 0.00 0.00 0.00 89 1015.0
20260902065921 67 232 1.7 6.1 0.00 0.00 0.00 89 1015.0
20260902065759 67 232 2.6 6.1 0.00 0.00 0.00 89 1015.1
20260902065704 67 232 2.6 6.1 0.00 0.00 0.00 89 1015.1
20260902065609 67 232 2.6 6.1 0.00 0.00 0.00 89 1015.1
20260902065457 67 243 3.5 6.1 0.00 0.00 0.00 89 1015.1
20260902065423 67 246 2.6 6.1 0.00 0.00 0.00 89 1015.1
20260902065307 67 233 2.6 3.5 0.00 0.00 0.00 89 1015.1
20260902065212 67 243 2.6 3.5 0.00 0.00 0.00 89 1015.2
20260902065116 66 252 1.7 3.5 0.00 0.00 0.00 89 1015.2
20260902065020 66 257 0.9 3.5 0.00 0.00 0.00 90 1015.2
20260902064858 66 257 0.9 3.5 0.00 0.00 0.00 90 1015.2
20260902064805 66 257 0.9 3.5 0.00 0.00 0.00 90 1015.2
20260902064709 66 257 1.7 3.5 0.00 0.00 0.00 90 1015.2
20260902064613 66 257 1.7 3.5 0.00 0.00 0.00 89 1015.2
20260902064519 66 257 1.7 3.5 0.00 0.00 0.00 90 1015.1
20260902064356 66 257 1.7 3.5 0.00 0.00 0.00 90 1015.2
20260902064301 66 258 1.7 3.5 0.00 0.00 0.00 90 1015.1
20260902064210 66 258 1.7 3.5 0.00 0.00 0.00 90 1015.1
20260902064135 66 258 1.7 3.5 0.00 0.00 0.00 90 1015.1
20260902064020 66 259 2.6 3.5 0.00 0.00 0.00 90 1015.1
20260902063858 66 277 2.6 3.5 0.00 0.00 0.00 90 1015.1
20260902063803 66 82 2.6 3.5 0.00 0.00 0.00 90 1015.1
20260902063708 66 82 1.7 3.5 0.00 0.00 0.00 90 1015.1
20260902063557 66 82 1.7 3.5 0.00 0.00 0.00 90 1015.2
20260902063502 66 82 1.7 3.5 0.00 0.00 0.00 90 1015.1
20260902063426 66 82 1.7 3.5 0.00 0.00 0.00 90 1015.1
20260902063330 66 82 1.7 3.5 0.00 0.00 0.00 90 1015.1
20260902063214 66 82 1.7 3.5 0.00 0.00 0.00 90 1014.9
20260902063059 66 82 2.6 3.5 0.00 0.00 0.00 90 1014.9
20260902063003 66 82 2.6 3.5 0.00 0.00 0.00 90 1014.9
20260902062912 66 82 2.6 3.5 0.00 0.00 0.00 90 1014.9
20260902062757 66 82 2.6 3.5 0.00 0.00 0.00 90 1014.8
20260902062702 66 82 2.6 2.6 0.00 0.00 0.00 90 1014.8
20260902062607 66 82 1.7 2.6 0.00 0.00 0.00 90 1014.8
20260902062510 66 82 1.7 2.6 0.00 0.00 0.00 90 1014.8
20260902062355 66 82 1.7 2.6 0.00 0.00 0.00 90 1014.8
20260902062306 66 82 1.7 2.6 0.00 0.00 0.00 90 1014.7
20260902062207 66 82 0.9 1.7 0.00 0.00 0.00 89 1014.7
20260902062132 66 82 0.9 1.7 0.00 0.00 0.00 89 1014.7
20260902062036 66 82 0.9 1.7 0.00 0.00 0.00 89 1014.6
20260902061939 66 82 0.9 2.6 0.00 0.00 0.00 89 1014.6
20260902061756 66 82 0.9 2.6 0.00 0.00 0.00 89 1014.5
20260902061720 66 82 0.9 2.6 0.00 0.00 0.00 89 1014.5
20260902061558 66 82 0.9 2.6 0.00 0.00 0.00 89 1014.4
20260902061507 66 82 0.9 2.6 0.00 0.00 0.00 89 1014.4
20260902061412 66 82 1.7 2.6 0.00 0.00 0.00 89 1014.4
20260902061257 66 82 1.7 2.6 0.00 0.00 0.00 89 1014.3
20260902061221 66 82 1.7 2.6 0.00 0.00 0.00 89 1014.2
20260902061105 66 82 1.7 2.6 0.00 0.00 0.00 89 1014.2
20260902061010 66 82 1.7 2.6 0.00 0.00 0.00 89 1014.1
20260902060859 66 82 0.9 1.7 0.00 0.00 0.00 88 1014.1
20260902060823 66 82 0.0 1.7 0.00 0.00 0.00 88 1014.0
20260902060706 66 82 0.0 1.7 0.00 0.00 0.00 88 1014.0
20260902060611 66 82 0.0 1.7 0.00 0.00 0.00 88 1013.9
20260902060516 66 82 0.0 1.7 0.00 0.00 0.00 88 1013.7
20260902060400 66 82 0.9 1.7 0.00 0.00 0.00 88 1013.6
20260902060305 66 82 0.9 1.7 0.00 0.00 0.00 88 1013.6
20260902060230 66 82 0.9 1.7 0.00 0.00 0.00 88 1013.6
20260902060058 66 82 0.9 1.7 0.00 0.00 0.00 88 1013.7
20260902060002 66 82 0.9 1.7 0.00 0.00 0.00 88 1013.7
20260902055928 66 82 0.9 1.7 0.00 0.00 0.00 88 1013.7
20260902055812 66 82 0.9 2.6 0.00 0.00 0.00 88 1013.7
20260902055657 66 82 0.0 2.6 0.00 0.00 0.00 88 1013.7
20260902055621 66 82 0.0 2.6 0.00 0.00 0.00 88 1013.7
20260902055509 66 82 0.0 2.6 0.00 0.00 0.00 88 1013.7
20260902055414 66 82 0.9 2.6 0.00 0.00 0.00 88 1013.7
20260902055259 66 82 0.9 2.6 0.00 0.00 0.00 88 1013.7
20260902055204 66 82 1.7 2.6 0.00 0.00 0.00 88 1013.9
20260902055109 66 82 1.7 2.6 0.00 0.00 0.00 88 1013.9
20260902055034 66 82 1.7 2.6 0.00 0.00 0.00 88 1013.8
20260902054917 66 82 1.7 2.6 0.00 0.00 0.00 88 1014.0
20260902054804 66 82 0.9 2.6 0.00 0.00 0.00 88 1014.1
20260902054707 66 81 0.0 1.7 0.00 0.00 0.00 88 1014.1
20260902054612 66 81 0.9 1.7 0.00 0.00 0.00 88 1014.1
20260902054517 66 81 0.9 1.7 0.00 0.00 0.00 88 1014.3
20260902054401 66 81 0.9 1.7 0.00 0.00 0.00 88 1014.2
20260902054305 66 81 0.9 1.7 0.00 0.00 0.00 88 1014.2
20260902054210 66 81 0.9 1.7 0.00 0.00 0.00 88 1014.4
20260902054059 66 82 0.9 1.7 0.00 0.00 0.00 89 1014.3
20260902054002 66 81 0.9 1.7 0.00 0.00 0.00 89 1014.4
20260902053907 66 81 0.9 1.7 0.00 0.00 0.00 89 1014.4
20260902053831 66 82 0.9 1.7 0.00 0.00 0.00 89 1014.4
20260902053655 66 82 0.9 1.7 0.00 0.00 0.00 89 1014.5
20260902053600 66 81 0.9 1.7 0.00 0.00 0.00 89 1014.4
20260902053509 66 82 0.9 1.7 0.00 0.00 0.00 89 1014.4
20260902053433 66 81 0.0 0.9 0.00 0.00 0.00 89 1014.5
20260902053257 66 81 0.0 0.0 0.00 0.00 0.00 89 1014.6
20260902053222 66 81 0.0 0.0 0.00 0.00 0.00 89 1014.6
20260902053104 66 81 0.0 0.0 0.00 0.00 0.00 89 1014.7
20260902053009 66 81 0.0 0.0 0.00 0.00 0.00 89 1014.7
20260902052934 66 81 0.0 0.0 0.00 0.00 0.00 89 1014.7
20260902052802 66 81 0.0 0.0 0.00 0.00 0.00 89 1014.8
20260902052707 66 81 0.0 0.0 0.00 0.00 0.00 89 1014.8
20260902052612 66 81 0.0 0.0 0.00 0.00 0.00 89 1014.7
20260902052457 66 81 0.0 0.0 0.00 0.00 0.00 89 1014.8
20260902052402 66 81 0.0 0.0 0.00 0.00 0.00 89 1014.8
20260902052325 66 81 0.0 0.0 0.00 0.00 0.00 89 1014.8
20260902052229 66 81 0.0 0.0 0.00 0.00 0.00 89 1014.8
20260902052118 66 81 0.0 0.0 0.00 0.00 0.00 89 1014.8
20260902051956 66 81 0.0 0.9 0.00 0.00 0.00 89 1014.8
20260902051901 66 81 0.0 0.9 0.00 0.00 0.00 89 1014.8
20260902051804 66 81 0.0 1.7 0.00 0.00 0.00 89 1014.8
20260902051709 66 81 0.0 1.7 0.00 0.00 0.00 89 1014.8
20260902051614 66 81 0.0 1.7 0.00 0.00 0.00 89 1014.8
20260902051503 66 81 0.0 1.7 0.00 0.00 0.00 89 1014.8
20260902051428 66 81 0.0 1.7 0.00 0.00 0.00 89 1014.8
20260902051312 66 81 0.0 1.7 0.00 0.00 0.00 89 1014.8
20260902051217 66 81 0.0 1.7 0.00 0.00 0.00 89 1014.8
20260902051101 66 81 0.9 1.7 0.00 0.00 0.00 89 1014.7
20260902051006 66 81 0.9 1.7 0.00 0.00 0.00 89 1014.7
20260902050910 66 81 0.0 0.9 0.00 0.00 0.00 89 1014.7
20260902050819 66 81 0.0 0.0 0.00 0.00 0.00 89 1014.6
20260902050656 66 81 0.0 0.0 0.00 0.00 0.00 89 1014.7
20260902050620 66 81 0.0 0.0 0.00 0.00 0.00 89 1014.7
20260902050458 66 81 0.0 0.0 0.00 0.00 0.00 89 1014.6
20260902050400 66 81 0.0 0.0 0.00 0.00 0.00 89 1014.6
20260902050325 66 81 0.0 0.0 0.00 0.00 0.00 89 1014.6
20260902050229 66 81 0.0 0.0 0.00 0.00 0.00 89 1014.6
20260902050129 66 81 0.0 0.0 0.00 0.00 0.00 89 1014.6
20260902050013 66 81 0.0 0.0 0.00 0.00 0.00 89 1014.5
20260902045919 66 81 0.0 0.0 0.00 0.00 0.00 89 1014.4
20260902045757 66 81 0.0 0.0 0.00 0.00 0.00 89 1014.4
20260902045701 66 81 0.0 0.0 0.00 0.00 0.00 89 1014.3
20260902045607 66 81 0.0 0.0 0.00 0.00 0.00 89 1014.2
20260902045517 66 81 0.0 0.0 0.00 0.00 0.00 89 1014.2
20260902045354 66 81 0.0 0.0 0.00 0.00 0.00 89 1014.2
20260902045320 66 81 0.0 0.0 0.00 0.00 0.00 89 1014.2
20260902045157 66 81 0.0 0.0 0.00 0.00 0.00 88 1014.3
20260902045101 66 81 0.0 0.0 0.00 0.00 0.00 88 1014.2
20260902045007 66 81 0.0 0.0 0.00 0.00 0.00 88 1014.2
20260902044916 66 81 0.0 0.0 0.00 0.00 0.00 88 1014.2
20260902044842 66 81 0.0 0.0 0.00 0.00 0.00 88 1014.3
20260902044659 66 81 0.0 0.0 0.00 0.00 0.00 88 1014.2
20260902044603 66 81 0.0 0.0 0.00 0.00 0.00 88 1014.2
20260902044509 66 81 0.0 0.0 0.00 0.00 0.00 88 1014.2
20260902044414 66 81 0.0 0.0 0.00 0.00 0.00 88 1014.1
20260902044303 66 81 0.0 0.0 0.00 0.00 0.00 88 1014.0
20260902044207 66 81 0.0 0.0 0.00 0.00 0.00 88 1014.0
20260902044112 66 81 0.0 0.0 0.00 0.00 0.00 88 1014.0
20260902044038 66 81 0.0 0.0 0.00 0.00 0.00 88 1014.0
20260902043855 66 81 0.0 0.0 0.00 0.00 0.00 88 1014.1
20260902043821 66 81 0.0 0.0 0.00 0.00 0.00 88 1014.1
20260902043659 66 81 0.0 0.0 0.00 0.00 0.00 88 1014.0
20260902043628 66 81 0.0 0.0 0.00 0.00 0.00 88 1014.0
20260902043532 66 81 0.0 0.0 0.00 0.00 0.00 88 1014.0
20260902043416 66 81 0.0 0.0 0.00 0.00 0.00 88 1013.9
20260902043319 66 81 0.0 0.0 0.00 0.00 0.00 88 1013.9
20260902043157 66 81 0.0 0.0 0.00 0.00 0.00 88 1013.9
20260902043102 66 81 0.0 0.0 0.00 0.00 0.00 88 1013.9
20260902043007 66 81 0.0 0.0 0.00 0.00 0.00 88 1014.0
20260902042856 66 81 0.0 0.0 0.00 0.00 0.00 87 1013.9
20260902042801 66 81 0.0 0.0 0.00 0.00 0.00 87 1014.0
20260902042706 66 81 0.0 0.0 0.00 0.00 0.00 87 1013.9
20260902042610 66 81 0.0 0.0 0.00 0.00 0.00 87 1013.9
20260902042517 66 81 0.0 0.0 0.00 0.00 0.00 87 1013.9
20260902042355 66 81 0.0 0.0 0.00 0.00 0.00 87 1013.9
20260902042308 66 81 0.0 0.0 0.00 0.00 0.00 87 1013.9
20260902042228 66 81 0.0 0.0 0.00 0.00 0.00 87 1013.9
20260902042112 66 81 0.0 0.0 0.00 0.00 0.00 87 1013.9
20260902042038 66 81 0.0 0.0 0.00 0.00 0.00 87 1013.9
20260902041855 66 81 0.0 0.0 0.00 0.00 0.00 87 1013.9
20260902041800 66 81 0.0 0.9 0.00 0.00 0.00 87 1014.0
20260902041725 66 81 0.0 1.7 0.00 0.00 0.00 87 1013.9
20260902041612 66 81 0.0 1.7 0.00 0.00 0.00 87 1013.9
20260902041539 66 81 0.0 1.7 0.00 0.00 0.00 87 1013.9
20260902041355 66 81 0.0 1.7 0.00 0.00 0.00 87 1013.8
20260902041300 66 81 0.0 1.7 0.00 0.00 0.00 87 1013.8
20260902041205 66 81 0.0 1.7 0.00 0.00 0.00 87 1013.8
20260902041110 66 81 0.0 1.7 0.00 0.00 0.00 87 1013.8
20260902040959 66 81 0.9 1.7 0.00 0.00 0.00 87 1013.8
20260902040904 66 81 1.7 1.7 0.00 0.00 0.00 87 1013.9
20260902040809 66 81 0.9 1.7 0.00 0.00 0.00 87 1013.9
20260902040734 66 81 0.9 1.7 0.00 0.00 0.00 87 1013.9
20260902040618 66 81 0.0 0.0 0.00 0.00 0.00 87 1013.7
20260902040502 66 81 0.0 0.0 0.00 0.00 0.00 87 1013.7
20260902040427 66 81 0.0 0.0 0.00 0.00 0.00 87 1013.8
20260902040331 66 81 0.0 0.0 0.00 0.00 0.00 87 1013.8
20260902040218 66 81 0.0 0.0 0.00 0.00 0.00 87 1013.8
20260902040006 66 81 0.0 0.0 0.00 0.00 0.00 87 1013.9
20260902035911 66 81 0.0 0.9 0.00 0.00 0.00 87 1013.9
20260902035755 66 81 0.0 0.9 0.00 0.00 0.00 87 1013.9
20260902035720 67 81 0.0 0.9 0.00 0.00 0.00 86 1013.9
20260902035604 67 81 0.0 0.9 0.00 0.00 0.00 87 1013.9
20260902035513 67 81 0.0 0.9 0.00 0.00 0.00 86 1013.9
20260902035417 67 81 0.0 0.9 0.00 0.00 0.00 86 1013.9
20260902035255 67 81 0.0 1.7 0.00 0.00 0.00 86 1014.0
20260902035221 67 81 0.0 1.7 0.00 0.00 0.00 86 1014.0
20260902035059 67 81 0.0 1.7 0.00 0.00 0.00 86 1014.1
20260902035003 67 81 0.0 1.7 0.00 0.00 0.00 86 1014.1
20260902034913 67 81 0.9 1.7 0.00 0.00 0.00 86 1014.1
20260902034817 67 81 0.9 1.7 0.00 0.00 0.00 86 1014.2
20260902034655 67 81 0.9 1.7 0.00 0.00 0.00 86 1014.3
20260902034600 67 81 0.9 1.7 0.00 0.00 0.00 86 1014.3
20260902034505 67 81 0.9 1.7 0.00 0.00 0.00 86 1014.2
20260902034408 67 81 0.0 0.9 0.00 0.00 0.00 86 1014.2
20260902034317 67 81 0.0 0.0 0.00 0.00 0.00 86 1014.2
20260902034154 67 81 0.0 0.0 0.00 0.00 0.00 86 1014.4
20260902034121 67 81 0.0 0.0 0.00 0.00 0.00 86 1014.4
20260902033959 67 81 0.0 0.0 0.00 0.00 0.00 86 1014.5
20260902033904 67 81 0.0 0.0 0.00 0.00 0.00 86 1014.5
20260902033809 67 81 0.0 0.0 0.00 0.00 0.00 86 1014.5
20260902033718 67 81 0.0 0.0 0.00 0.00 0.00 86 1014.5
20260902033555 67 81 0.0 0.0 0.00 0.00 0.00 85 1014.6
20260902033500 67 81 0.0 0.0 0.00 0.00 0.00 85 1014.6
20260902033405 67 81 0.0 0.0 0.00 0.00 0.00 85 1014.6
20260902033330 67 81 0.0 0.0 0.00 0.00 0.00 85 1014.6
20260902033214 67 81 0.0 0.0 0.00 0.00 0.00 85 1014.6
20260902033102 67 81 0.0 0.0 0.00 0.00 0.00 85 1014.7
20260902033008 67 81 0.0 0.0 0.00 0.00 0.00 85 1014.7
20260902032913 67 81 0.0 0.0 0.00 0.00 0.00 85 1014.7
20260902032838 67 81 0.0 0.0 0.00 0.00 0.00 85 1014.7
20260902032654 67 81 0.0 0.0 0.00 0.00 0.00 85 1014.8
20260902032600 67 81 0.0 0.0 0.00 0.00 0.00 85 1014.7
20260902032524 67 81 0.0 0.0 0.00 0.00 0.00 85 1014.6
20260902032412 67 81 0.0 0.0 0.00 0.00 0.00 85 1014.6
20260902032255 67 81 0.0 0.0 0.00 0.00 0.00 85 1014.6
20260902032219 67 81 0.0 0.0 0.00 0.00 0.00 85 1014.6
20260902032057 67 81 0.0 0.0 0.00 0.00 0.00 85 1014.6
20260902032021 67 81 0.0 0.0 0.00 0.00 0.00 85 1014.5
20260902031905 68 81 0.0 0.0 0.00 0.00 0.00 85 1014.6
20260902031810 67 81 0.0 0.0 0.00 0.00 0.00 85 1014.6
20260902031659 68 81 0.0 0.0 0.00 0.00 0.00 85 1014.5
20260902031604 68 81 0.0 0.0 0.00 0.00 0.00 85 1014.5
20260902031529 68 81 0.0 0.0 0.00 0.00 0.00 85 1014.5
20260902031413 68 81 0.0 0.9 0.00 0.00 0.00 85 1014.5
20260902031257 68 81 0.0 0.9 0.00 0.00 0.00 85 1014.5
20260902031202 68 81 0.0 1.7 0.00 0.00 0.00 85 1014.5
20260902031110 68 81 0.0 1.7 0.00 0.00 0.00 85 1014.5
20260902031017 68 81 0.0 1.7 0.00 0.00 0.00 86 1014.5
20260902030855 68 81 0.0 1.7 0.00 0.00 0.00 86 1014.5
20260902030800 68 81 0.0 1.7 0.00 0.00 0.00 86 1014.5
20260902030724 68 81 0.0 1.7 0.00 0.00 0.00 85 1014.5
20260902030609 68 81 0.9 1.7 0.00 0.00 0.00 85 1014.5
20260902030533 68 81 0.9 1.7 0.00 0.00 0.00 85 1014.5
20260902030421 68 81 0.9 1.7 0.00 0.00 0.00 85 1014.5
20260902030259 68 81 0.0 0.0 0.00 0.00 0.00 85 1014.5
20260902030204 68 81 0.0 0.0 0.00 0.00 0.00 85 1014.4
20260902030129 68 81 0.0 0.0 0.00 0.00 0.00 85 1014.4
20260902030032 68 81 0.0 0.0 0.00 0.00 0.00 85 1014.4
20260902025935 68 81 0.0 0.0 0.00 0.00 0.00 85 1014.4
20260902025757 68 81 0.0 0.0 0.00 0.00 0.00 85 1014.4
20260902025702 69 81 0.0 0.0 0.00 0.00 0.00 85 1014.4
20260902025611 69 81 0.0 0.0 0.00 0.00 0.00 85 1014.4
20260902025456 69 81 0.0 0.0 0.00 0.00 0.00 84 1014.4
20260902025400 69 81 0.0 0.0 0.00 0.00 0.00 84 1014.4
20260902025306 69 81 0.0 0.0 0.00 0.00 0.00 84 1014.4
20260902025209 69 81 0.0 0.0 0.00 0.00 0.00 84 1014.4
20260902025114 69 81 0.0 0.0 0.00 0.00 0.00 83 1014.4
20260902025019 69 81 0.0 0.0 0.00 0.00 0.00 83 1014.4
20260902024926 69 81 0.0 0.0 0.00 0.00 0.00 83 1014.2
20260902024829 69 81 0.0 0.0 0.00 0.00 0.00 83 1014.2
20260902024713 69 81 0.0 0.0 0.00 0.00 0.00 83 1014.2
20260902024617 69 81 0.0 0.0 0.00 0.00 0.00 83 1014.2
20260902024455 69 81 0.0 0.0 0.00 0.00 0.00 83 1014.1
20260902024400 69 81 0.0 0.0 0.00 0.00 0.00 83 1014.1
20260902024305 69 81 0.0 0.0 0.00 0.00 0.00 83 1014.1
20260902024213 69 81 0.0 0.0 0.00 0.00 0.00 82 1014.1
20260902024119 69 81 0.0 0.0 0.00 0.00 0.00 82 1014.2
20260902023956 69 81 0.0 0.0 0.00 0.00 0.00 82 1014.2
20260902023902 69 81 0.0 0.0 0.00 0.00 0.00 82 1014.2
20260902023807 69 81 0.0 0.0 0.00 0.00 0.00 82 1014.1
20260902023732 69 81 0.0 0.0 0.00 0.00 0.00 82 1014.1
20260902023617 69 81 0.0 0.0 0.00 0.00 0.00 82 1014.1
20260902023521 69 81 0.0 0.0 0.00 0.00 0.00 81 1014.1
20260902023424 70 81 0.0 0.0 0.00 0.00 0.00 81 1014.1
20260902023307 70 81 0.0 0.0 0.00 0.00 0.00 81 1014.1
20260902023232 70 81 0.0 0.0 0.00 0.00 0.00 81 1014.1
20260902023116 70 81 0.0 0.0 0.00 0.00 0.00 81 1014.2
20260902023021 70 81 0.0 0.0 0.00 0.00 0.00 81 1014.2
20260902022859 70 81 0.0 0.0 0.00 0.00 0.00 81 1014.3
20260902022823 70 81 0.0 0.0 0.00 0.00 0.00 81 1014.2
20260902022711 70 81 0.0 0.0 0.00 0.00 0.00 81 1014.2
20260902022555 70 81 0.0 0.0 0.00 0.00 0.00 81 1014.1
20260902022521 70 81 0.0 0.0 0.00 0.00 0.00 81 1014.1
20260902022425 70 81 0.0 0.0 0.00 0.00 0.00 81 1014.2
20260902022308 70 81 0.0 0.0 0.00 0.00 0.00 81 1014.2
20260902022213 70 81 0.0 0.0 0.00 0.00 0.00 81 1014.2
20260902022102 70 81 0.0 0.0 0.00 0.00 0.00 81 1014.3
20260902022028 70 81 0.0 0.0 0.00 0.00 0.00 81 1014.3
20260902021911 70 81 0.0 0.0 0.00 0.00 0.00 81 1014.3
20260902021817 70 81 0.0 0.0 0.00 0.00 0.00 81 1014.3
20260902021655 71 81 0.0 0.0 0.00 0.00 0.00 81 1014.5
20260902021621 71 81 0.0 0.0 0.00 0.00 0.00 81 1014.5
20260902021459 71 81 0.0 0.0 0.00 0.00 0.00 80 1014.4
20260902021428 71 81 0.0 0.0 0.00 0.00 0.00 80 1014.4
20260902021332 71 81 0.0 0.0 0.00 0.00 0.00 80 1014.4
20260902021156 71 81 0.0 0.0 0.00 0.00 0.00 80 1014.4
20260902021120 71 81 0.0 0.0 0.00 0.00 0.00 80 1014.4
20260902021004 71 81 0.0 0.0 0.00 0.00 0.00 80 1014.3
20260902020909 71 81 0.0 0.0 0.00 0.00 0.00 80 1014.3
20260902020813 71 81 0.0 0.0 0.00 0.00 0.00 80 1014.3
20260902020702 71 81 0.0 0.9 0.00 0.00 0.00 80 1014.3
20260902020628 71 81 0.0 0.9 0.00 0.00 0.00 80 1014.3
20260902020511 71 81 0.0 0.9 0.00 0.00 0.00 80 1014.3
20260902020417 71 81 0.0 1.7 0.00 0.00 0.00 80 1014.3
20260902020255 71 81 0.0 1.7 0.00 0.00 0.00 80 1014.3
20260902020221 71 81 0.0 1.7 0.00 0.00 0.00 80 1014.3
20260902020059 71 81 0.0 1.7 0.00 0.00 0.00 79 1014.4
20260902020008 71 81 0.0 1.7 0.00 0.00 0.00 79 1014.4
20260902015912 71 81 0.0 1.7 0.00 0.00 0.00 79 1014.4
20260902015819 71 81 0.9 1.7 0.00 0.00 0.00 79 1014.3
20260902015656 72 81 0.9 1.7 0.00 0.00 0.00 78 1014.3
20260902015600 72 81 0.9 1.7 0.00 0.00 0.00 78 1014.3
20260902015504 72 81 0.9 1.7 0.00 0.00 0.00 78 1014.3
20260902015428 72 81 0.9 1.7 0.00 0.00 0.00 78 1014.2
20260902015317 72 81 0.9 1.7 0.00 0.00 0.00 79 1014.2
20260902015155 72 81 0.9 1.7 0.00 0.00 0.00 79 1014.2
20260902015121 72 82 0.9 1.7 0.00 0.00 0.00 79 1014.2
20260902014959 72 81 0.0 1.7 0.00 0.00 0.00 79 1014.1
20260902014904 72 81 0.0 0.9 0.00 0.00 0.00 79 1014.1
20260902014809 72 82 0.0 0.9 0.00 0.00 0.00 78 1014.1
20260902014718 72 81 0.0 0.9 0.00 0.00 0.00 78 1014.1
20260902014602 72 81 0.0 0.9 0.00 0.00 0.00 78 1014.0
20260902014507 72 81 0.0 0.9 0.00 0.00 0.00 78 1013.9
20260902014411 72 81 0.0 0.9 0.00 0.00 0.00 78 1013.9
20260902014316 72 81 0.0 0.9 0.00 0.00 0.00 78 1014.0
20260902014200 73 81 0.0 0.9 0.00 0.00 0.00 77 1014.0
20260902014108 72 81 0.9 0.9 0.00 0.00 0.00 76 1014.0
20260902014013 72 81 0.9 0.9 0.00 0.00 0.00 76 1014.0
20260902013917 73 81 0.9 0.9 0.00 0.00 0.00 75 1014.0
20260902013755 73 82 0.9 0.9 0.00 0.00 0.00 76 1014.0
20260902013659 73 82 0.0 0.9 0.00 0.00 0.00 76 1013.9
20260902013624 73 82 0.0 0.0 0.00 0.00 0.00 75 1014.0
20260902013508 73 81 0.0 0.0 0.00 0.00 0.00 75 1014.0
20260902013356 73 82 0.0 0.0 0.00 0.00 0.00 74 1014.0
20260902013301 73 81 0.0 0.0 0.00 0.00 0.00 74 1014.0
20260902013206 73 81 0.0 0.0 0.00 0.00 0.00 74 1014.0
20260902013111 73 81 0.0 0.0 0.00 0.00 0.00 74 1014.0
20260902013016 73 81 0.0 0.0 0.00 0.00 0.00 74 1014.0
20260902012919 73 81 0.0 0.0 0.00 0.00 0.00 75 1013.9
20260902012807 73 82 0.0 0.0 0.00 0.00 0.00 74 1014.0
20260902012732 73 81 0.0 0.0 0.00 0.00 0.00 74 1014.0
20260902012556 73 82 0.0 0.0 0.00 0.00 0.00 75 1013.9
20260902012501 73 81 0.0 0.0 0.00 0.00 0.00 75 1014.0
20260902012406 73 82 0.0 0.0 0.00 0.00 0.00 75 1014.0
20260902012310 73 81 0.0 0.0 0.00 0.00 0.00 74 1014.0
20260902012159 73 82 0.0 0.0 0.00 0.00 0.00 74 1013.9
20260902012104 73 82 0.0 0.0 0.00 0.00 0.00 74 1013.9
20260902012008 73 82 0.0 0.0 0.00 0.00 0.00 75 1013.9
20260902011912 74 82 0.0 0.0 0.00 0.00 0.00 75 1013.8
20260902011837 74 82 0.0 0.0 0.00 0.00 0.00 75 1013.8
20260902011654 74 82 0.0 0.0 0.00 0.00 0.00 75 1013.7
20260902011620 74 82 0.0 0.0 0.00 0.00 0.00 75 1013.7
20260902011508 74 82 0.0 0.0 0.00 0.00 0.00 74 1013.7
20260902011413 74 81 0.0 0.0 0.00 0.00 0.00 74 1013.7
20260902011257 74 82 0.0 0.0 0.00 0.00 0.00 74 1013.7
20260902011222 74 82 0.0 0.0 0.00 0.00 0.00 73 1013.7
20260902011059 74 82 0.0 0.0 0.00 0.00 0.00 72 1013.7
20260902011003 74 82 0.0 0.0 0.00 0.00 0.00 72 1013.6
20260902010912 74 82 0.0 0.9 0.00 0.00 0.00 72 1013.6
20260902010757 74 81 0.0 1.7 0.00 0.00 0.00 73 1013.6
20260902010721 75 82 0.0 1.7 0.00 0.00 0.00 73 1013.6
20260902010559 75 82 0.0 1.7 0.00 0.00 0.00 73 1013.5
20260902010503 75 82 0.0 1.7 0.00 0.00 0.00 72 1013.5
20260902010407 75 82 0.0 1.7 0.00 0.00 0.00 72 1013.5
20260902010255 75 81 0.0 1.7 0.00 0.00 0.00 72 1013.5
20260902010159 75 82 0.0 1.7 0.00 0.00 0.00 72 1013.5
20260902010104 75 82 0.9 1.7 0.00 0.00 0.00 72 1013.5
20260902010008 75 82 0.9 1.7 0.00 0.00 0.00 72 1013.5
20260902005913 75 82 0.9 1.7 0.00 0.00 0.00 72 1013.5
20260902005819 75 82 0.9 1.7 0.00 0.00 0.00 71 1013.6
20260902005702 75 82 0.0 0.9 0.00 0.00 0.00 72 1013.6
20260902005611 75 82 0.0 0.0 0.00 0.00 0.00 72 1013.6
20260902005517 75 82 0.0 0.0 0.00 0.00 0.00 71 1013.7
20260902005355 75 82 0.0 0.0 0.00 0.00 0.00 71 1013.7
20260902005300 75 81 0.0 0.0 0.00 0.00 0.00 70 1013.7
20260902005203 76 82 0.0 0.0 0.00 0.00 0.00 70 1013.7
20260902005109 76 81 0.0 0.0 0.00 0.00 0.00 70 1013.7
20260902005018 76 82 0.0 0.0 0.00 0.00 0.00 69 1013.7
20260902004921 76 82 0.0 0.9 0.00 0.00 0.00 69 1013.7
20260902004805 76 81 0.0 0.9 0.00 0.00 0.00 69 1013.7
20260902004729 76 82 0.0 0.9 0.00 0.00 0.00 69 1013.7
20260902004633 76 82 0.0 0.9 0.00 0.00 0.00 69 1013.7
20260902004517 76 82 0.0 0.9 0.00 0.00 0.00 69 1013.8
20260902004401 76 82 0.0 0.9 0.00 0.00 0.00 69 1013.8
20260902004306 76 82 0.0 2.6 0.00 0.00 0.00 68 1013.8
20260902004214 77 82 0.0 2.6 0.00 0.00 0.00 68 1013.8
20260902004118 77 82 0.0 2.6 0.00 0.00 0.00 69 1013.8
20260902003956 77 82 0.0 2.6 0.00 0.00 0.00 68 1013.8
20260902003921 77 82 0.0 2.6 0.00 0.00 0.00 68 1013.9
20260902003825 77 82 0.0 2.6 0.00 0.00 0.00 68 1013.9
20260902003708 77 82 0.9 2.6 0.00 0.00 0.00 68 1013.9
20260902003613 77 82 0.9 2.6 0.00 0.00 0.00 69 1013.9
20260902003501 77 82 0.9 2.6 0.00 0.00 0.00 67 1013.8
20260902003405 78 82 0.9 2.6 0.00 0.00 0.00 66 1013.7
20260902003311 78 82 0.0 2.6 0.00 0.00 0.00 66 1013.7
20260902003155 78 82 0.9 2.6 0.00 0.00 0.00 66 1013.7
20260902003100 78 82 0.9 2.6 0.00 0.00 0.00 66 1013.7
20260902003006 78 82 1.7 2.6 0.00 0.00 0.00 66 1013.7
20260902002914 78 82 1.7 2.6 0.00 0.00 0.00 66 1013.7
20260902002819 78 82 1.7 2.6 0.00 0.00 0.00 66 1013.7
20260902002657 78 81 1.7 2.6 0.00 0.00 0.00 65 1013.7
20260902002601 78 81 1.7 2.6 0.00 0.00 0.00 65 1013.8
20260902002526 78 81 2.6 2.6 0.00 0.00 0.00 64 1013.8
20260902002410 78 81 2.6 2.6 0.00 0.00 0.00 64 1013.8
20260902002300 78 81 2.6 2.6 0.00 0.00 0.00 64 1013.8
20260902002225 78 80 2.6 2.6 0.00 0.00 0.00 63 1013.8
20260902002108 78 72 1.7 2.6 0.00 0.00 0.00 62 1013.8
20260902002033 79 72 1.7 2.6 0.00 0.00 0.00 62 1013.8
20260902001917 79 72 1.7 2.6 0.00 0.00 0.00 61 1013.8
20260902001754 79 38 0.9 1.7 0.00 0.00 0.00 61 1013.8
20260902001700 79 38 0.9 1.7 0.00 0.00 0.00 59 1013.9
20260902001609 79 38 0.9 1.7 0.00 0.00 0.00 60 1013.9
20260902001513 79 38 0.9 1.7 0.00 0.00 0.00 60 1013.9
20260902001358 79 38 0.9 1.7 0.00 0.00 0.00 62 1013.9
20260902001302 79 38 0.9 1.7 0.00 0.00 0.00 62 1014.0
20260902001208 79 38 0.9 1.7 0.00 0.00 0.00 63 1014.0
20260902001112 80 38 0.9 1.7 0.00 0.00 0.00 61 1014.0
20260902001000 80 38 0.9 1.7 0.00 0.00 0.00 62 1013.9
20260902000905 80 38 0.9 1.7 0.00 0.00 0.00 63 1013.9
20260902000831 80 38 1.7 1.7 0.00 0.00 0.00 62 1013.9
20260902000734 80 38 1.7 2.6 0.00 0.00 0.00 61 1014.0
20260902000557 80 38 1.7 2.6 0.00 0.00 0.00 61 1013.9
20260902000503 80 38 1.7 2.6 0.00 0.00 0.00 61 1014.0
20260902000429 80 38 0.9 2.6 0.00 0.00 0.00 61 1013.9
20260902000312 80 38 0.9 2.6 0.00 0.00 0.00 61 1013.9
20260902000219 81 38 0.9 3.5 0.00 0.00 0.00 60 1013.9
20260902000055 80 38 0.9 3.5 0.00 0.00 0.00 57 1013.8
20260902000000 81 38 1.7 3.5 0.00 0.00 0.00 55 1013.9
20260901235904 81 38 1.7 3.5 0.00 0.00 0.00 55 1013.9
20260901235809 81 39 1.7 3.5 0.00 0.00 0.00 55 1013.9
20260901235657 81 38 1.7 3.5 0.00 0.00 0.00 56 1013.9
20260901235602 81 38 1.7 3.5 0.00 0.00 0.00 56 1014.0
20260901235528 81 39 1.7 3.5 0.00 0.00 0.00 56 1014.0
20260901235431 81 38 2.6 3.5 0.00 0.00 0.00 57 1014.0
20260901235334 81 39 1.7 3.5 0.00 0.00 0.00 57 1014.0
20260901235217 81 34 1.7 4.3 0.00 0.00 0.00 56 1014.0
20260901235101 81 34 2.6 4.3 0.00 0.00 0.00 56 1014.0
20260901235006 81 20 1.7 4.3 0.00 0.00 0.00 56 1014.0
20260901234854 81 13 1.7 4.3 0.00 0.00 0.00 58 1014.0
20260901234759 81 10 1.7 4.3 0.00 0.00 0.00 59 1014.0
20260901234704 81 9 1.7 4.3 0.00 0.00 0.00 58 1014.0
20260901234608 81 5 1.7 4.3 0.00 0.00 0.00 59 1014.0
20260901234514 81 5 2.6 4.3 0.00 0.00 0.00 58 1014.0
20260901234402 81 9 2.6 4.3 0.00 0.00 0.00 58 1014.0
20260901234328 81 360 2.6 3.5 0.00 0.00 0.00 59 1014.0
20260901234211 81 355 2.6 3.5 0.00 0.00 0.00 59 1014.0
20260901234055 81 9 2.6 4.3 0.00 0.00 0.00 59 1014.0
20260901233959 81 5 2.6 4.3 0.00 0.00 0.00 59 1014.0
20260901233905 82 9 2.6 4.3 0.00 0.00 0.00 59 1014.0
20260901233829 82 9 2.6 4.3 0.00 0.00 0.00 59 1014.0
20260901233657 82 9 2.6 4.3 0.00 0.00 0.00 59 1014.0
20260901233600 82 9 2.6 4.3 0.00 0.00 0.00 59 1013.9
20260901233505 82 13 2.6 4.3 0.00 0.00 0.00 59 1014.0
20260901233410 82 14 2.6 4.3 0.00 0.00 0.00 58 1014.0
20260901233315 82 329 2.6 4.3 0.00 0.00 0.00 59 1013.9
20260901233239 82 342 2.6 4.3 0.00 0.00 0.00 58 1013.9
20260901233057 82 360 2.6 4.3 0.00 0.00 0.00 57 1014.0
20260901233025 82 341 2.6 5.2 0.00 0.00 0.00 57 1014.0
20260901232908 82 11 2.6 5.2 0.00 0.00 0.00 57 1014.0
20260901232814 82 360 2.6 5.2 0.00 0.00 0.00 56 1014.1
20260901232659 82 5 2.6 5.2 0.00 0.00 0.00 56 1014.0
20260901232604 83 360 3.5 5.2 0.00 0.00 0.00 56 1014.0
20260901232529 83 360 2.6 5.2 0.00 0.00 0.00 57 1013.9
20260901232431 83 355 2.6 5.2 0.00 0.00 0.00 58 1013.9
20260901232259 83 348 2.6 5.2 0.00 0.00 0.00 58 1014.0
20260901232224 83 9 2.6 3.5 0.00 0.00 0.00 57 1013.9
20260901232108 83 9 2.6 3.5 0.00 0.00 0.00 56 1013.9
20260901232012 83 12 2.6 3.5 0.00 0.00 0.00 55 1014.0
20260901231858 83 17 1.7 3.5 0.00 0.00 0.00 55 1013.9
20260901231822 83 18 2.6 3.5 0.00 0.00 0.00 55 1013.9
20260901231706 83 5 2.6 3.5 0.00 0.00 0.00 55 1013.9
20260901231555 83 5 1.7 4.3 0.00 0.00 0.00 55 1013.9
20260901231500 83 32 1.7 4.3 0.00 0.00 0.00 54 1013.9
20260901231405 83 31 1.7 5.2 0.00 0.00 0.00 55 1013.9
20260901231329 83 40 1.7 5.2 0.00 0.00 0.00 55 1013.9
20260901231213 83 16 1.7 5.2 0.00 0.00 0.00 54 1013.9
20260901231117 83 28 1.7 5.2 0.00 0.00 0.00 54 1013.8
20260901231005 83 32 1.7 5.2 0.00 0.00 0.00 54 1013.9
20260901230910 83 34 2.6 7.8 0.00 0.00 0.00 52 1013.9
20260901230814 83 26 2.6 7.8 0.00 0.00 0.00 52 1013.8
20260901230718 83 62 2.6 7.8 0.00 0.00 0.00 53 1013.9
20260901230556 83 40 2.6 7.8 0.00 0.00 0.00 52 1013.9
20260901230502 83 5 2.6 7.8 0.00 0.00 0.00 53 1013.9
20260901230411 83 42 2.6 7.8 0.00 0.00 0.00 52 1013.9
20260901230256 83 40 2.6 7.8 0.00 0.00 0.00 53 1013.9
20260901230200 83 5 3.5 7.8 0.00 0.00 0.00 53 1014.0
20260901230125 83 20 4.3 7.8 0.00 0.00 0.00 52 1014.0
20260901230009 83 41 3.5 7.8 0.00 0.00 0.00 54 1014.0
20260901225913 83 360 2.6 5.2 0.00 0.00 0.00 54 1014.0
20260901225818 83 24 2.6 5.2 0.00 0.00 0.00 54 1014.0
20260901225706 83 31 2.6 5.2 0.00 0.00 0.00 53 1014.0
20260901225630 83 11 2.6 5.2 0.00 0.00 0.00 53 1014.0
20260901225513 83 360 2.6 5.2 0.00 0.00 0.00 53 1014.0
20260901225418 83 336 1.7 3.5 0.00 0.00 0.00 54 1014.0
20260901225256 83 40 1.7 3.5 0.00 0.00 0.00 53 1013.9
20260901225200 83 40 1.7 7.0 0.00 0.00 0.00 52 1013.9
20260901225109 83 43 1.7 7.0 0.00 0.00 0.00 53 1013.9
20260901225013 83 43 1.7 7.0 0.00 0.00 0.00 53 1013.9
20260901224937 83 44 1.7 7.0 0.00 0.00 0.00 52 1013.8
20260901224754 83 44 1.7 7.0 0.00 0.00 0.00 52 1013.8
20260901224700 83 44 1.7 7.0 0.00 0.00 0.00 52 1013.8
20260901224605 83 44 1.7 7.0 0.00 0.00 0.00 52 1013.9
20260901224509 83 45 2.6 7.0 0.00 0.00 0.00 52 1013.9
20260901224419 83 11 2.6 7.0 0.00 0.00 0.00 53 1013.9
20260901224256 83 336 2.6 4.3 0.00 0.00 0.00 53 1013.8
20260901224222 83 36 2.6 4.3 0.00 0.00 0.00 54 1013.9
20260901224126 83 22 2.6 4.3 0.00 0.00 0.00 53 1013.8
20260901224009 83 43 1.7 4.3 0.00 0.00 0.00 53 1013.8
20260901223913 83 41 1.7 4.3 0.00 0.00 0.00 53 1013.8
20260901223818 83 27 1.7 4.3 0.00 0.00 0.00 53 1013.8
20260901223706 83 355 2.6 4.3 0.00 0.00 0.00 53 1013.8
20260901223610 83 25 2.6 4.3 0.00 0.00 0.00 53 1013.8
20260901223455 83 59 1.7 4.3 0.00 0.00 0.00 53 1013.8
20260901223359 83 15 1.7 4.3 0.00 0.00 0.00 52 1013.8
20260901223304 83 360 1.7 4.3 0.00 0.00 0.00 53 1013.8
20260901223210 83 22 1.7 4.3 0.00 0.00 0.00 53 1013.8
20260901223119 83 28 1.7 4.3 0.00 0.00 0.00 52 1013.8
20260901222956 83 13 1.7 4.3 0.00 0.00 0.00 53 1013.8
20260901222921 83 5 1.7 4.3 0.00 0.00 0.00 52 1013.8
20260901222758 83 5 2.6 4.3 0.00 0.00 0.00 52 1013.8
20260901222702 84 19 2.6 4.3 0.00 0.00 0.00 53 1013.7
20260901222608 83 25 1.7 4.3 0.00 0.00 0.00 53 1013.7
20260901222456 84 5 1.7 4.3 0.00 0.00 0.00 53 1013.8
20260901222400 84 5 2.6 4.3 0.00 0.00 0.00 53 1013.8
20260901222306 84 360 2.6 4.3 0.00 0.00 0.00 53 1013.8
20260901222208 84 360 2.6 4.3 0.00 0.00 0.00 52 1013.8
20260901222113 84 11 2.6 4.3 0.00 0.00 0.00 53 1013.8
20260901221957 84 9 2.6 4.3 0.00 0.00 0.00 54 1013.8
20260901221906 84 355 3.5 4.3 0.00 0.00 0.00 53 1013.8
20260901221810 84 355 3.5 4.3 0.00 0.00 0.00 54 1013.8
20260901221716 84 9 2.6 4.3 0.00 0.00 0.00 55 1013.8
20260901221640 84 340 2.6 4.3 0.00 0.00 0.00 54 1013.8
20260901221456 84 360 2.6 4.3 0.00 0.00 0.00 54 1013.8
20260901221400 84 341 2.6 4.3 0.00 0.00 0.00 53 1013.8
20260901221305 84 360 2.6 5.2 0.00 0.00 0.00 52 1013.8
20260901221213 84 340 2.6 5.2 0.00 0.00 0.00 51 1013.8
20260901221059 84 355 3.5 5.2 0.00 0.00 0.00 52 1013.8
20260901221004 84 360 3.5 7.0 0.00 0.00 0.00 52 1013.9
20260901220908 84 360 3.5 7.0 0.00 0.00 0.00 52 1013.9
20260901220834 84 360 3.5 7.0 0.00 0.00 0.00 52 1013.9
20260901220658 84 355 3.5 7.0 0.00 0.00 0.00 52 1013.9
20260901220627 84 9 3.5 7.0 0.00 0.00 0.00 52 1013.9
20260901220510 85 342 3.5 7.0 0.00 0.00 0.00 52 1013.9
20260901220356 85 360 4.3 7.0 0.00 0.00 0.00 52 1013.9
20260901220300 85 355 4.3 7.0 0.00 0.00 0.00 51 1013.9
20260901220205 85 5 4.3 7.0 0.00 0.00 0.00 51 1013.9
20260901220130 85 360 4.3 7.0 0.00 0.00 0.00 51 1013.9
20260901215957 85 360 4.3 7.0 0.00 0.00 0.00 53 1013.8
20260901215902 85 355 4.3 7.0 0.00 0.00 0.00 52 1013.8
20260901215806 85 360 4.3 7.0 0.00 0.00 0.00 51 1013.8
20260901215711 85 344 4.3 7.0 0.00 0.00 0.00 52 1013.8
20260901215555 85 360 4.3 7.0 0.00 0.00 0.00 54 1013.8
20260901215501 85 341 3.5 7.0 0.00 0.00 0.00 54 1013.8
20260901215409 85 338 3.5 7.0 0.00 0.00 0.00 52 1013.8
20260901215313 85 355 3.5 7.0 0.00 0.00 0.00 52 1013.7
20260901215216 85 360 2.6 7.0 0.00 0.00 0.00 51 1013.7
20260901215100 85 343 2.6 7.0 0.00 0.00 0.00 51 1013.7
20260901215005 85 24 2.6 7.0 0.00 0.00 0.00 49 1013.7
20260901214909 85 30 2.6 7.0 0.00 0.00 0.00 49 1013.7
20260901214834 85 32 3.5 7.0 0.00 0.00 0.00 49 1013.7
20260901214701 85 22 2.6 7.0 0.00 0.00 0.00 50 1013.7
20260901214607 85 16 2.6 7.0 0.00 0.00 0.00 50 1013.7
20260901214532 85 5 2.6 4.3 0.00 0.00 0.00 53 1013.7
20260901214356 85 360 2.6 4.3 0.00 0.00 0.00 53 1013.6
20260901214320 85 15 2.6 3.5 0.00 0.00 0.00 52 1013.6
20260901214158 85 11 2.6 3.5 0.00 0.00 0.00 49 1013.6
20260901214107 85 11 1.7 3.5 0.00 0.00 0.00 51 1013.5
20260901214011 85 360 1.7 5.2 0.00 0.00 0.00 52 1013.5
20260901213856 85 360 2.6 5.2 0.00 0.00 0.00 50 1013.5
20260901213802 86 360 2.6 5.2 0.00 0.00 0.00 51 1013.5
20260901213707 86 360 2.6 5.2 0.00 0.00 0.00 51 1013.6
20260901213611 86 360 2.6 5.2 0.00 0.00 0.00 51 1013.6
20260901213521 86 355 2.6 5.2 0.00 0.00 0.00 50 1013.6
20260901213358 86 355 2.6 5.2 0.00 0.00 0.00 48 1013.6
20260901213302 86 360 3.5 5.2 0.00 0.00 0.00 50 1013.6
20260901213207 86 339 3.5 5.2 0.00 0.00 0.00 52 1013.6
20260901213111 86 333 2.6 5.2 0.00 0.00 0.00 49 1013.6
20260901212955 86 5 1.7 5.2 0.00 0.00 0.00 49 1013.6
20260901212920 86 14 1.7 5.2 0.00 0.00 0.00 48 1013.6
20260901212828 86 12 2.6 7.0 0.00 0.00 0.00 48 1013.6
20260901212711 86 5 2.6 7.0 0.00 0.00 0.00 47 1013.6
20260901212555 86 24 2.6 7.0 0.00 0.00 0.00 47 1013.6
20260901212521 86 360 3.5 7.0 0.00 0.00 0.00 47 1013.7
20260901212424 86 35 3.5 7.0 0.00 0.00 0.00 48 1013.6
20260901212328 86 360 3.5 7.0 0.00 0.00 0.00 47 1013.6
20260901212232 87 360 4.3 7.0 0.00 0.00 0.00 47 1013.6
20260901212055 87 360 4.3 7.0 0.00 0.00 0.00 46 1013.5
20260901212003 87 350 4.3 7.0 0.00 0.00 0.00 47 1013.5
20260901211908 87 339 3.5 7.0 0.00 0.00 0.00 48 1013.5
20260901211812 87 5 2.6 7.0 0.00 0.00 0.00 45 1013.6
20260901211656 87 33 1.7 7.0 0.00 0.00 0.00 47 1013.5
20260901211601 87 18 1.7 7.0 0.00 0.00 0.00 47 1013.5
20260901211506 87 19 1.7 7.0 0.00 0.00 0.00 48 1013.4
20260901211354 87 41 1.7 7.0 0.00 0.00 0.00 46 1013.5
20260901211259 87 42 3.5 7.0 0.00 0.00 0.00 46 1013.4
20260901211202 87 43 4.3 7.0 0.00 0.00 0.00 45 1013.5
20260901211128 87 42 4.3 7.0 0.00 0.00 0.00 43 1013.5
20260901211011 87 46 4.3 7.0 0.00 0.00 0.00 44 1013.4
20260901210918 87 41 4.3 7.0 0.00 0.00 0.00 46 1013.5
20260901210755 87 59 1.7 7.0 0.00 0.00 0.00 44 1013.6
20260901210725 88 30 2.6 7.0 0.00 0.00 0.00 50 1013.5
20260901210628 88 329 2.6 7.0 0.00 0.00 0.00 48 1013.6
20260901210511 88 331 2.6 7.0 0.00 0.00 0.00 48 1013.6
20260901210435 88 355 3.5 7.0 0.00 0.00 0.00 46 1013.6
20260901210319 88 336 4.3 7.0 0.00 0.00 0.00 49 1013.7
20260901210202 88 323 2.6 5.2 0.00 0.00 0.00 49 1013.6
20260901210128 88 336 1.7 4.3 0.00 0.00 0.00 46 1013.6
20260901210011 88 5 1.7 5.2 0.00 0.00 0.00 47 1013.7
20260901205900 88 5 1.7 5.2 0.00 0.00 0.00 49 1013.7
20260901205804 88 41 1.7 5.2 0.00 0.00 0.00 46 1013.8
20260901205708 88 37 1.7 7.0 0.00 0.00 0.00 45 1013.8
20260901205633 88 37 1.7 7.0 0.00 0.00 0.00 45 1013.7
20260901205538 88 45 1.7 7.0 0.00 0.00 0.00 47 1013.8
20260901205441 88 46 1.7 7.0 0.00 0.00 0.00 46 1013.7
20260901205257 88 52 3.5 7.0 0.00 0.00 0.00 45 1013.8
20260901205223 88 40 3.5 7.0 0.00 0.00 0.00 45 1013.9
20260901205110 88 28 3.5 7.0 0.00 0.00 0.00 45 1013.9
20260901205014 88 36 2.6 7.0 0.00 0.00 0.00 43 1013.8
20260901204918 89 53 2.6 7.0 0.00 0.00 0.00 44 1014.0
20260901204802 89 360 3.5 7.0 0.00 0.00 0.00 45 1013.9
20260901204707 89 331 3.5 7.0 0.00 0.00 0.00 45 1013.9
20260901204611 89 360 2.6 7.0 0.00 0.00 0.00 45 1014.0
20260901204500 89 34 2.6 8.7 0.00 0.00 0.00 44 1014.0
20260901204406 89 37 2.6 8.7 0.00 0.00 0.00 45 1014.0
20260901204331 89 12 2.6 8.7 0.00 0.00 0.00 46 1014.0
20260901204235 89 15 3.5 8.7 0.00 0.00 0.00 47 1014.0
20260901204059 89 360 5.2 8.7 0.00 0.00 0.00 46 1014.0
20260901204023 89 338 5.2 8.7 0.00 0.00 0.00 48 1014.0
20260901203907 89 344 4.3 8.7 0.00 0.00 0.00 43 1014.0
20260901203755 89 360 6.1 9.6 0.00 0.00 0.00 43 1014.0
20260901203700 89 30 6.1 9.6 0.00 0.00 0.00 45 1014.1
20260901203606 89 26 6.1 9.6 0.00 0.00 0.00 44 1014.0
20260901203510 89 11 5.2 9.6 0.00 0.00 0.00 42 1014.0
20260901203416 89 23 4.3 9.6 0.00 0.00 0.00 46 1014.0
20260901203320 89 342 5.2 9.6 0.00 0.00 0.00 45 1013.9
20260901203224 89 40 7.0 9.6 0.00 0.00 0.00 46 1014.0
20260901203107 89 13 7.0 9.6 0.00 0.00 0.00 46 1014.0
20260901203036 89 340 5.2 9.6 0.00 0.00 0.00 47 1013.9
20260901202939 89 360 4.3 7.8 0.00 0.00 0.00 48 1014.0
20260901202756 89 360 4.3 7.8 0.00 0.00 0.00 48 1014.0
20260901202720 89 9 4.3 7.8 0.00 0.00 0.00 47 1014.0
20260901202557 89 360 5.2 7.8 0.00 0.00 0.00 46 1014.0
20260901202522 89 360 4.3 7.8 0.00 0.00 0.00 48 1014.1
20260901202407 89 360 2.6 7.0 0.00 0.00 0.00 49 1014.1
20260901202255 89 355 1.7 7.0 0.00 0.00 0.00 47 1014.1
20260901202201 89 72 0.9 7.0 0.00 0.00 0.00 47 1014.0
20260901202126 89 72 0.9 7.0 0.00 0.00 0.00 47 1014.1
20260901202010 89 72 1.7 7.0 0.00 0.00 0.00 48 1014.1
20260901201911 89 72 3.5 7.0 0.00 0.00 0.00 45 1014.1
20260901201756 89 49 4.3 6.1 0.00 0.00 0.00 46 1014.1
20260901201722 89 360 4.3 6.1 0.00 0.00 0.00 46 1014.1
20260901201609 89 360 3.5 6.1 0.00 0.00 0.00 45 1014.1
20260901201513 89 24 3.5 6.1 0.00 0.00 0.00 45 1014.1
20260901201418 89 42 2.6 7.0 0.00 0.00 0.00 43 1014.1
20260901201256 89 63 2.6 7.0 0.00 0.00 0.00 42 1014.1
20260901201220 89 32 1.7 7.0 0.00 0.00 0.00 46 1014.1
20260901201058 89 32 0.9 7.0 0.00 0.00 0.00 41 1014.1
20260901201007 89 32 2.6 7.0 0.00 0.00 0.00 42 1014.1
20260901200911 89 338 4.3 7.0 0.00 0.00 0.00 45 1014.1
20260901200816 89 360 2.6 5.2 0.00 0.00 0.00 50 1014.2
20260901200720 89 163 1.7 5.2 0.00 0.00 0.00 42 1014.2
20260901200604 89 279 1.7 7.8 0.00 0.00 0.00 43 1014.1
20260901200510 89 280 2.6 7.8 0.00 0.00 0.00 43 1014.1
20260901200354 89 280 1.7 7.8 0.00 0.00 0.00 46 1014.2
20260901200304 89 273 1.7 7.8 0.00 0.00 0.00 44 1014.1
20260901200207 89 274 3.5 7.8 0.00 0.00 0.00 47 1014.1
20260901200111 89 360 4.3 7.8 0.00 0.00 0.00 44 1014.2
20260901200018 89 360 4.3 8.7 0.00 0.00 0.00 47 1014.3
20260901195855 89 360 4.3 8.7 0.00 0.00 0.00 49 1014.3
20260901195800 88 355 4.3 8.7 0.00 0.00 0.00 48 1014.3
20260901195710 88 360 3.5 8.7 0.00 0.00 0.00 49 1014.3
20260901195632 88 52 4.3 8.7 0.00 0.00 0.00 45 1014.3
20260901195535 88 78 4.3 8.7 0.00 0.00 0.00 44 1014.2
20260901195359 88 59 3.5 8.7 0.00 0.00 0.00 47 1014.3
20260901195323 88 22 4.3 8.7 0.00 0.00 0.00 46 1014.3
20260901195227 88 324 5.2 8.7 0.00 0.00 0.00 47 1014.3
20260901195130 88 307 3.5 7.8 0.00 0.00 0.00 48 1014.3
20260901195014 88 360 2.6 7.8 0.00 0.00 0.00 51 1014.2
20260901194903 88 355 3.5 7.8 0.00 0.00 0.00 47 1014.3
20260901194807 88 360 3.5 7.8 0.00 0.00 0.00 49 1014.3
20260901194710 88 334 4.3 7.8 0.00 0.00 0.00 50 1014.3
20260901194616 88 360 5.2 7.8 0.00 0.00 0.00 50 1014.3
20260901194519 88 355 4.3 7.8 0.00 0.00 0.00 50 1014.4
20260901194355 88 360 2.6 7.0 0.00 0.00 0.00 49 1014.3
20260901194320 88 329 3.5 7.0 0.00 0.00 0.00 47 1014.4
20260901194206 88 291 3.5 7.0 0.00 0.00 0.00 46 1014.4
20260901194130 88 332 3.5 7.0 0.00 0.00 0.00 48 1014.4
20260901193955 88 315 5.2 7.0 0.00 0.00 0.00 46 1014.4
20260901193859 88 360 5.2 7.0 0.00 0.00 0.00 47 1014.4
20260901193804 88 293 4.3 7.0 0.00 0.00 0.00 50 1014.4
20260901193708 88 360 4.3 7.0 0.00 0.00 0.00 49 1014.4
20260901193557 88 311 4.3 7.0 0.00 0.00 0.00 49 1014.4
20260901193522 88 341 5.2 7.8 0.00 0.00 0.00 46 1014.4
20260901193426 88 306 4.3 7.8 0.00 0.00 0.00 46 1014.5
20260901193310 88 291 3.5 7.8 0.00 0.00 0.00 48 1014.5
20260901193213 88 308 3.5 7.8 0.00 0.00 0.00 48 1014.4
20260901193056 88 355 3.5 7.8 0.00 0.00 0.00 47 1014.4
20260901193002 88 360 4.3 7.8 0.00 0.00 0.00 49 1014.4
20260901192906 88 342 5.2 7.8 0.00 0.00 0.00 48 1014.4
20260901192835 88 349 5.2 7.8 0.00 0.00 0.00 48 1014.4
20260901192719 88 360 6.1 7.8 0.00 0.00 0.00 47 1014.5
20260901192555 89 360 5.2 7.8 0.00 0.00 0.00 49 1014.4
20260901192501 89 334 5.2 7.8 0.00 0.00 0.00 50 1014.4
20260901192405 89 360 5.2 7.8 0.00 0.00 0.00 47 1014.5
20260901192310 89 355 5.2 7.8 0.00 0.00 0.00 46 1014.5
20260901192159 89 355 3.5 7.8 0.00 0.00 0.00 46 1014.4
20260901192102 89 360 3.5 7.8 0.00 0.00 0.00 44 1014.4
20260901192008 89 65 3.5 10.4 0.00 0.00 0.00 43 1014.4
20260901191912 89 66 3.5 10.4 0.00 0.00 0.00 45 1014.4
20260901191757 89 49 3.5 10.4 0.00 0.00 0.00 47 1014.4
20260901191700 89 350 4.3 10.4 0.00 0.00 0.00 48 1014.4
20260901191625 89 341 4.3 10.4 0.00 0.00 0.00 47 1014.4
20260901191509 89 308 4.3 10.4 0.00 0.00 0.00 49 1014.4
20260901191418 89 341 4.3 10.4 0.00 0.00 0.00 46 1014.4
20260901191255 89 360 6.1 10.4 0.00 0.00 0.00 47 1014.4
20260901191201 89 345 6.1 10.4 0.00 0.00 0.00 46 1014.5
20260901191105 89 360 4.3 8.7 0.00 0.00 0.00 52 1014.5
20260901191010 89 349 3.5 7.8 0.00 0.00 0.00 48 1014.5
20260901190859 89 28 1.7 5.2 0.00 0.00 0.00 49 1014.5
20260901190803 89 5 0.9 5.2 0.00 0.00 0.00 50 1014.5
20260901190728 89 296 0.9 5.2 0.00 0.00 0.00 46 1014.5
20260901190611 89 296 0.9 5.2 0.00 0.00 0.00 47 1014.5
20260901190457 89 296 1.7 5.2 0.00 0.00 0.00 46 1014.6
20260901190421 89 296 2.6 5.2 0.00 0.00 0.00 47 1014.6
20260901190306 89 314 3.5 5.2 0.00 0.00 0.00 48 1014.6
20260901190214 89 315 3.5 5.2 0.00 0.00 0.00 49 1014.6
20260901190120 89 304 2.6 5.2 0.00 0.00 0.00 48 1014.6
20260901185957 89 269 2.6 7.8 0.00 0.00 0.00 46 1014.6
20260901185903 89 299 1.7 7.8 0.00 0.00 0.00 47 1014.6
20260901185827 89 344 1.7 7.8 0.00 0.00 0.00 49 1014.6
20260901185709 89 350 1.7 7.8 0.00 0.00 0.00 50 1014.6
20260901185558 89 346 2.6 7.8 0.00 0.00 0.00 50 1014.6
20260901185503 89 338 3.5 7.8 0.00 0.00 0.00 54 1014.6
20260901185407 88 348 4.3 7.8 0.00 0.00 0.00 52 1014.6
20260901185313 88 360 5.2 7.8 0.00 0.00 0.00 55 1014.6
20260901185157 88 346 4.3 7.0 0.00 0.00 0.00 50 1014.6
20260901185101 88 360 4.3 7.0 0.00 0.00 0.00 53 1014.6
20260901185006 88 350 4.3 7.0 0.00 0.00 0.00 53 1014.6
20260901184916 88 44 4.3 7.8 0.00 0.00 0.00 50 1014.6
20260901184818 88 40 3.5 7.8 0.00 0.00 0.00 50 1014.6
20260901184656 88 36 2.6 7.8 0.00 0.00 0.00 52 1014.6
20260901184600 88 56 3.5 7.8 0.00 0.00 0.00 52 1014.7
20260901184504 88 51 3.5 7.8 0.00 0.00 0.00 52 1014.7
20260901184406 87 12 3.5 7.8 0.00 0.00 0.00 55 1014.7
20260901184309 87 53 1.7 7.8 0.00 0.00 0.00 50 1014.7
20260901184157 87 350 3.5 7.8 0.00 0.00 0.00 53 1014.7
20260901184120 87 350 4.3 7.8 0.00 0.00 0.00 55 1014.7
20260901183958 87 334 3.5 7.0 0.00 0.00 0.00 56 1014.8
20260901183922 86 344 1.7 4.3 0.00 0.00 0.00 56 1014.7
20260901183802 86 30 0.0 3.5 0.00 0.00 0.00 56 1014.7
20260901183726 86 355 0.9 3.5 0.00 0.00 0.00 52 1014.8
20260901183609 86 355 1.7 3.5 0.00 0.00 0.00 51 1014.8
20260901183502 86 355 0.9 3.5 0.00 0.00 0.00 52 1014.8
20260901183426 86 355 0.9 3.5 0.00 0.00 0.00 52 1014.8
20260901183352 85 350 0.9 3.5 0.00 0.00 0.00 53 1014.9
20260901183247 85 351 1.7 3.5 0.00 0.00 0.00 61 1014.9
20260901183006 85 77 1.7 3.5 0.00 0.00 0.00 59 1014.9
20260901182910 85 112 1.7 3.5 0.00 0.00 0.00 55 1014.9
20260901182754 85 130 1.7 3.5 0.00 0.00 0.00 53 1014.8
20260901182719 85 130 2.6 3.5 0.00 0.00 0.00 53 1014.9
20260901182603 85 146 1.7 3.5 0.00 0.00 0.00 52 1014.9
20260901182508 85 151 1.7 4.3 0.00 0.00 0.00 52 1014.9
20260901182357 85 151 2.6 4.3 0.00 0.00 0.00 52 1014.8
20260901182300 85 151 1.7 4.3 0.00 0.00 0.00 51 1014.9
20260901182204 86 151 1.7 4.3 0.00 0.00 0.00 52 1014.9
20260901182108 86 103 1.7 4.3 0.00 0.00 0.00 52 1014.9
20260901182013 86 103 0.9 4.3 0.00 0.00 0.00 53 1014.9
20260901181858 86 32 1.7 4.3 0.00 0.00 0.00 55 1014.9
20260901181807 85 32 2.6 4.3 0.00 0.00 0.00 58 1014.9
20260901181711 85 33 2.6 4.3 0.00 0.00 0.00 57 1015.0
20260901181618 85 31 2.6 5.2 0.00 0.00 0.00 58 1014.9
20260901181455 85 70 1.7 5.2 0.00 0.00 0.00 55 1014.9
20260901181400 85 78 1.7 6.1 0.00 0.00 0.00 55 1015.0
20260901181306 85 78 2.6 6.1 0.00 0.00 0.00 56 1015.0
20260901181154 85 26 2.6 6.1 0.00 0.00 0.00 58 1015.1
20260901181100 85 26 2.6 6.1 0.00 0.00 0.00 55 1015.1
20260901181004 85 36 2.6 6.1 0.00 0.00 0.00 56 1015.0
20260901180928 85 34 3.5 6.1 0.00 0.00 0.00 54 1015.0
20260901180811 85 45 3.5 6.1 0.00 0.00 0.00 56 1015.1
20260901180656 85 61 3.5 6.1 0.00 0.00 0.00 53 1015.2
20260901180605 85 80 2.6 6.1 0.00 0.00 0.00 53 1015.1
20260901180509 85 69 0.9 3.5 0.00 0.00 0.00 56 1015.1
20260901180354 85 68 0.9 3.5 0.00 0.00 0.00 56 1015.1
20260901180259 85 68 0.9 3.5 0.00 0.00 0.00 57 1015.1
20260901180205 85 67 1.7 3.5 0.00 0.00 0.00 56 1015.1
20260901180129 85 68 1.7 4.3 0.00 0.00 0.00 56 1015.1
20260901175958 85 68 1.7 4.3 0.00 0.00 0.00 55 1015.2
20260901175903 85 56 1.7 4.3 0.00 0.00 0.00 57 1015.2
20260901175807 85 26 1.7 4.3 0.00 0.00 0.00 56 1015.2
20260901175733 85 27 2.6 4.3 0.00 0.00 0.00 54 1015.2
20260901175616 85 5 1.7 4.3 0.00 0.00 0.00 58 1015.3
20260901175541 85 36 1.7 4.3 0.00 0.00 0.00 58 1015.3
20260901175358 85 355 2.6 4.3 0.00 0.00 0.00 58 1015.4
20260901175322 85 5 2.6 4.3 0.00 0.00 0.00 61 1015.4
20260901175230 84 25 1.7 4.3 0.00 0.00 0.00 59 1015.4
20260901175054 84 100 1.7 5.2 0.00 0.00 0.00 55 1015.4
20260901174959 84 99 1.7 5.2 0.00 0.00 0.00 57 1015.4
20260901174905 84 98 1.7 5.2 0.00 0.00 0.00 58 1015.4
20260901174829 84 98 2.6 5.2 0.00 0.00 0.00 58 1015.4
20260901174713 84 98 2.6 5.2 0.00 0.00 0.00 58 1015.4
20260901174601 84 63 2.6 5.2 0.00 0.00 0.00 60 1015.4
20260901174507 84 28 2.6 5.2 0.00 0.00 0.00 61 1015.4
20260901174411 84 71 3.5 5.2 0.00 0.00 0.00 56 1015.4
20260901174318 84 74 3.5 5.2 0.00 0.00 0.00 57 1015.4
20260901174155 84 66 3.5 5.2 0.00 0.00 0.00 58 1015.5
20260901174100 84 115 2.6 5.2 0.00 0.00 0.00 57 1015.4
20260901174009 84 121 1.7 5.2 0.00 0.00 0.00 56 1015.4
20260901173913 84 87 0.9 5.2 0.00 0.00 0.00 58 1015.5
20260901173758 84 86 1.7 5.2 0.00 0.00 0.00 56 1015.5
20260901173703 84 86 3.5 5.2 0.00 0.00 0.00 57 1015.5
20260901173607 84 85 3.5 5.2 0.00 0.00 0.00 56 1015.5
20260901173513 84 93 2.6 5.2 0.00 0.00 0.00 57 1015.5
20260901173401 84 108 0.9 5.2 0.00 0.00 0.00 56 1015.5
20260901173306 84 109 1.7 5.2 0.00 0.00 0.00 57 1015.5
20260901173211 84 109 1.7 5.2 0.00 0.00 0.00 56 1015.5
20260901173117 84 109 3.5 5.2 0.00 0.00 0.00 56 1015.5
20260901173001 84 107 2.6 5.2 0.00 0.00 0.00 57 1015.5
20260901172906 83 107 0.9 5.2 0.00 0.00 0.00 57 1015.5
20260901172814 83 138 0.9 3.5 0.00 0.00 0.00 56 1015.5
20260901172658 83 138 1.7 3.5 0.00 0.00 0.00 57 1015.6
20260901172603 83 138 1.7 4.3 0.00 0.00 0.00 56 1015.5
20260901172507 83 138 1.7 4.3 0.00 0.00 0.00 56 1015.5
20260901172432 83 138 1.7 4.3 0.00 0.00 0.00 58 1015.5
20260901172316 83 165 1.7 7.0 0.00 0.00 0.00 56 1015.5
20260901172201 83 165 1.7 7.0 0.00 0.00 0.00 56 1015.5
20260901172109 83 165 1.7 7.0 0.00 0.00 0.00 60 1015.5
20260901171954 83 140 2.6 7.0 0.00 0.00 0.00 57 1015.6
20260901171859 83 132 2.6 7.0 0.00 0.00 0.00 57 1015.5
20260901171804 83 132 2.6 7.0 0.00 0.00 0.00 57 1015.6
20260901171709 84 113 2.6 7.0 0.00 0.00 0.00 57 1015.6
20260901171635 84 105 2.6 7.0 0.00 0.00 0.00 57 1015.6
20260901171502 84 109 2.6 7.0 0.00 0.00 0.00 61 1015.5
20260901171427 84 53 2.6 4.3 0.00 0.00 0.00 60 1015.5
20260901171331 83 53 1.7 4.3 0.00 0.00 0.00 61 1015.5
20260901171154 83 52 0.9 4.3 0.00 0.00 0.00 60 1015.5
20260901171059 83 53 0.9 4.3 0.00 0.00 0.00 58 1015.4
20260901171005 83 53 0.0 4.3 0.00 0.00 0.00 58 1015.5
20260901170909 83 53 0.0 4.3 0.00 0.00 0.00 58 1015.5
20260901170759 83 53 0.9 5.2 0.00 0.00 0.00 59 1015.6
20260901170724 83 53 1.7 5.2 0.00 0.00 0.00 60 1015.5
20260901170607 83 31 2.6 5.2 0.00 0.00 0.00 61 1015.5
20260901170512 83 32 1.7 5.2 0.00 0.00 0.00 62 1015.6
20260901170356 83 43 0.9 5.2 0.00 0.00 0.00 60 1015.6
20260901170302 83 43 1.7 5.2 0.00 0.00 0.00 63 1015.5
20260901170230 83 43 2.6 5.2 0.00 0.00 0.00 63 1015.5
20260901170054 82 30 3.5 5.2 0.00 0.00 0.00 62 1015.6
20260901165958 82 39 3.5 5.2 0.00 0.00 0.00 64 1015.5
20260901165923 82 42 1.7 6.1 0.00 0.00 0.00 62 1015.4
20260901165806 82 108 1.7 7.0 0.00 0.00 0.00 58 1015.4
20260901165710 82 109 2.6 7.0 0.00 0.00 0.00 58 1015.4
20260901165616 83 96 3.5 7.0 0.00 0.00 0.00 58 1015.4
20260901165504 83 109 2.6 7.0 0.00 0.00 0.00 57 1015.4
20260901165408 83 91 3.5 7.0 0.00 0.00 0.00 57 1015.4
20260901165314 83 91 3.5 7.0 0.00 0.00 0.00 57 1015.4
20260901165159 83 80 4.3 7.0 0.00 0.00 0.00 57 1015.3
20260901165103 83 89 4.3 7.0 0.00 0.00 0.00 62 1015.4
20260901165007 83 66 2.6 4.3 0.00 0.00 0.00 63 1015.4
20260901164857 83 63 1.7 4.3 0.00 0.00 0.00 61 1015.4
20260901164801 83 69 2.6 3.5 0.00 0.00 0.00 62 1015.4
20260901164706 82 54 2.6 3.5 0.00 0.00 0.00 65 1015.4
20260901164611 82 33 2.6 4.3 0.00 0.00 0.00 64 1015.4
20260901164456 82 26 1.7 4.3 0.00 0.00 0.00 63 1015.4
20260901164421 82 94 1.7 4.3 0.00 0.00 0.00 62 1015.4
20260901164308 82 94 1.7 4.3 0.00 0.00 0.00 63 1015.4
20260901164233 82 77 1.7 5.2 0.00 0.00 0.00 62 1015.4
20260901164118 82 77 1.7 5.2 0.00 0.00 0.00 64 1015.6
20260901163955 82 77 2.6 5.2 0.00 0.00 0.00 62 1015.5
20260901163900 82 97 2.6 5.2 0.00 0.00 0.00 63 1015.5
20260901163805 82 82 2.6 5.2 0.00 0.00 0.00 62 1015.4
20260901163710 82 100 2.6 5.2 0.00 0.00 0.00 64 1015.4
20260901163558 82 96 2.6 5.2 0.00 0.00 0.00 66 1015.5
20260901163503 81 80 3.5 5.2 0.00 0.00 0.00 66 1015.5
20260901163427 81 42 3.5 5.2 0.00 0.00 0.00 64 1015.5
20260901163310 81 86 1.7 5.2 0.00 0.00 0.00 65 1015.5
20260901163156 81 75 1.7 5.2 0.00 0.00 0.00 66 1015.5
20260901163120 81 49 0.9 5.2 0.00 0.00 0.00 63 1015.5
20260901163008 81 56 1.7 5.2 0.00 0.00 0.00 63 1015.5
20260901162912 81 55 2.6 5.2 0.00 0.00 0.00 64 1015.6
20260901162818 81 52 3.5 5.2 0.00 0.00 0.00 66 1015.6
20260901162655 81 44 3.5 5.2 0.00 0.00 0.00 66 1015.5
20260901162600 81 46 4.3 5.2 0.00 0.00 0.00 67 1015.5
20260901162525 80 39 3.5 5.2 0.00 0.00 0.00 65 1015.4
20260901162409 80 74 3.5 7.0 0.00 0.00 0.00 64 1015.4
20260901162318 80 76 2.6 7.0 0.00 0.00 0.00 64 1015.4
20260901162155 80 92 2.6 7.0 0.00 0.00 0.00 68 1015.4
20260901162100 80 83 2.6 7.0 0.00 0.00 0.00 65 1015.5
20260901162026 80 84 3.5 7.0 0.00 0.00 0.00 67 1015.5
20260901161909 80 63 3.5 7.0 0.00 0.00 0.00 66 1015.5
20260901161754 80 59 3.5 7.0 0.00 0.00 0.00 67 1015.4
20260901161703 80 61 4.3 7.0 0.00 0.00 0.00 66 1015.4
20260901161606 80 118 4.3 7.0 0.00 0.00 0.00 67 1015.4
20260901161510 80 110 3.5 7.0 0.00 0.00 0.00 66 1015.4
20260901161416 80 104 4.3 7.0 0.00 0.00 0.00 67 1015.4
20260901161259 80 98 4.3 7.0 0.00 0.00 0.00 66 1015.4
20260901161224 80 97 4.3 7.0 0.00 0.00 0.00 66 1015.5
20260901161108 80 101 3.5 6.1 0.00 0.00 0.00 65 1015.5
20260901160956 80 101 3.5 6.1 0.00 0.00 0.00 69 1015.5
20260901160901 80 80 3.5 6.1 0.00 0.00 0.00 69 1015.6
20260901160806 80 76 2.6 6.1 0.00 0.00 0.00 69 1015.6
20260901160711 80 49 2.6 4.3 0.00 0.00 0.00 70 1015.6
20260901160615 80 94 2.6 4.3 0.00 0.00 0.00 68 1015.6
20260901160459 80 95 1.7 4.3 0.00 0.00 0.00 69 1015.6
20260901160409 80 99 1.7 4.3 0.00 0.00 0.00 70 1015.6
20260901160313 80 126 1.7 4.3 0.00 0.00 0.00 67 1015.7
20260901160159 80 127 2.6 4.3 0.00 0.00 0.00 67 1015.6
20260901160007 80 49 0.9 3.5 0.00 0.00 0.00 70 1015.7
20260901155856 80 40 1.7 3.5 0.00 0.00 0.00 70 1015.7
20260901155800 80 40 1.7 3.5 0.00 0.00 0.00 71 1015.8
20260901155705 80 40 1.7 3.5 0.00 0.00 0.00 71 1015.8
20260901155609 80 40 2.6 3.5 0.00 0.00 0.00 71 1015.8
20260901155513 79 47 2.6 4.3 0.00 0.00 0.00 70 1015.7
20260901155359 79 17 1.7 4.3 0.00 0.00 0.00 70 1015.7
20260901155307 79 17 1.7 4.3 0.00 0.00 0.00 69 1015.7
20260901155212 79 355 2.6 4.3 0.00 0.00 0.00 69 1015.8
20260901155056 79 31 2.6 4.3 0.00 0.00 0.00 69 1015.7
20260901155001 79 32 2.6 5.2 0.00 0.00 0.00 70 1015.7
20260901154906 79 32 2.6 5.2 0.00 0.00 0.00 71 1015.7
20260901154811 79 32 2.6 5.2 0.00 0.00 0.00 71 1015.7
20260901154700 79 43 2.6 5.2 0.00 0.00 0.00 70 1015.8
20260901154605 79 78 2.6 5.2 0.00 0.00 0.00 72 1015.7
20260901154511 79 79 2.6 5.2 0.00 0.00 0.00 70 1015.7
20260901154356 78 94 2.6 5.2 0.00 0.00 0.00 70 1015.7
20260901154300 78 85 3.5 5.2 0.00 0.00 0.00 69 1015.8
20260901154205 78 73 3.5 5.2 0.00 0.00 0.00 71 1015.7
20260901154113 78 75 2.6 5.2 0.00 0.00 0.00 73 1015.7
20260901153956 78 60 1.7 3.5 0.00 0.00 0.00 73 1015.7
20260901153901 78 60 1.7 6.1 0.00 0.00 0.00 73 1015.8
20260901153806 78 55 1.7 6.1 0.00 0.00 0.00 73 1015.8
20260901153711 78 87 0.9 6.1 0.00 0.00 0.00 73 1015.7
20260901153556 78 87 1.7 6.1 0.00 0.00 0.00 72 1015.6
20260901153504 78 88 0.9 6.1 0.00 0.00 0.00 70 1015.7
20260901153410 78 88 1.7 6.1 0.00 0.00 0.00 71 1015.7
20260901153334 78 88 1.7 6.1 0.00 0.00 0.00 70 1015.7
20260901153217 78 69 2.6 6.1 0.00 0.00 0.00 71 1015.8
20260901153055 78 69 3.5 6.1 0.00 0.00 0.00 69 1015.7
20260901153020 78 75 4.3 6.1 0.00 0.00 0.00 69 1015.7
20260901152903 78 80 3.5 6.1 0.00 0.00 0.00 69 1015.6
20260901152811 78 76 2.6 6.1 0.00 0.00 0.00 70 1015.6
20260901152656 78 45 1.7 4.3 0.00 0.00 0.00 71 1015.7
20260901152600 79 45 2.6 4.3 0.00 0.00 0.00 71 1015.7
20260901152505 78 38 2.6 4.3 0.00 0.00 0.00 70 1015.6
20260901152409 79 63 2.6 4.3 0.00 0.00 0.00 70 1015.6
20260901152258 79 55 1.7 4.3 0.00 0.00 0.00 72 1015.6
20260901152223 79 55 2.6 4.3 0.00 0.00 0.00 72 1015.6
20260901152127 79 56 2.6 4.3 0.00 0.00 0.00 72 1015.6
20260901152011 79 67 2.6 4.3 0.00 0.00 0.00 71 1015.6
20260901151857 79 67 2.6 4.3 0.00 0.00 0.00 70 1015.6
20260901151801 79 65 2.6 4.3 0.00 0.00 0.00 73 1015.6
20260901151705 79 41 2.6 4.3 0.00 0.00 0.00 74 1015.6
20260901151554 78 339 1.7 4.3 0.00 0.00 0.00 73 1015.6
20260901151520 78 38 1.7 4.3 0.00 0.00 0.00 73 1015.6
20260901151403 78 61 2.6 4.3 0.00 0.00 0.00 72 1015.6
20260901151309 78 61 2.6 4.3 0.00 0.00 0.00 71 1015.6
20260901151213 78 70 2.6 4.3 0.00 0.00 0.00 73 1015.7
20260901151139 78 65 2.6 6.1 0.00 0.00 0.00 73 1015.6
20260901150955 78 56 2.6 6.1 0.00 0.00 0.00 72 1015.7
20260901150924 78 56 2.6 6.1 0.00 0.00 0.00 74 1015.6
20260901150828 78 57 1.7 6.1 0.00 0.00 0.00 74 1015.6
20260901150731 78 38 2.6 6.1 0.00 0.00 0.00 74 1015.8
20260901150555 77 37 1.7 6.1 0.00 0.00 0.00 73 1015.8
20260901150501 77 34 2.6 6.1 0.00 0.00 0.00 74 1015.7
20260901150405 77 51 2.6 6.1 0.00 0.00 0.00 74 1015.8
20260901150309 77 107 3.5 6.1 0.00 0.00 0.00 76 1015.8
20260901150158 77 49 2.6 5.2 0.00 0.00 0.00 75 1015.7
20260901150104 77 74 2.6 5.2 0.00 0.00 0.00 79 1015.7
20260901150008 77 18 2.6 5.2 0.00 0.00 0.00 79 1015.7
20260901145913 77 49 2.6 5.2 0.00 0.00 0.00 79 1015.7
20260901145759 76 5 3.5 5.2 0.00 0.00 0.00 79 1015.8
20260901145703 76 360 3.5 5.2 0.00 0.00 0.00 80 1015.7
20260901145611 76 351 3.5 4.3 0.00 0.00 0.00 79 1015.7
20260901145456 76 327 2.6 4.3 0.00 0.00 0.00 79 1015.6
20260901145401 76 349 1.7 4.3 0.00 0.00 0.00 80 1015.7
20260901145326 75 355 1.7 4.3 0.00 0.00 0.00 80 1015.6
20260901145230 75 273 1.7 4.3 0.00 0.00 0.00 80 1015.6
20260901145113 75 5 1.7 4.3 0.00 0.00 0.00 81 1015.6
20260901145002 75 34 1.7 4.3 0.00 0.00 0.00 82 1015.7
20260901144905 75 24 1.7 4.3 0.00 0.00 0.00 82 1015.6
20260901144810 75 22 1.7 4.3 0.00 0.00 0.00 81 1015.6
20260901144654 74 22 2.6 5.2 0.00 0.00 0.00 82 1015.6
20260901144620 74 15 2.6 5.2 0.00 0.00 0.00 82 1015.6
20260901144503 74 10 2.6 5.2 0.00 0.00 0.00 82 1015.7
20260901144409 74 5 1.7 5.2 0.00 0.00 0.00 81 1015.7
20260901144257 74 36 1.7 5.2 0.00 0.00 0.00 82 1015.7
20260901144201 74 36 2.6 5.2 0.00 0.00 0.00 83 1015.6
20260901144105 74 37 3.5 5.2 0.00 0.00 0.00 83 1015.7
20260901144010 74 51 3.5 5.2 0.00 0.00 0.00 82 1015.7
20260901143855 74 22 3.5 5.2 0.00 0.00 0.00 82 1015.8
20260901143803 74 34 2.6 5.2 0.00 0.00 0.00 82 1015.7
20260901143707 74 13 2.6 7.0 0.00 0.00 0.00 82 1015.7
20260901143612 74 355 2.6 7.0 0.00 0.00 0.00 83 1015.8
20260901143518 74 5 2.6 7.0 0.00 0.00 0.00 83 1015.8
20260901143355 73 31 2.6 7.0 0.00 0.00 0.00 84 1015.7
20260901143300 73 360 3.5 7.0 0.00 0.00 0.00 83 1015.8
20260901143224 73 360 3.5 7.0 0.00 0.00 0.00 83 1015.8
20260901143113 73 327 4.3 7.0 0.00 0.00 0.00 84 1015.8
20260901143018 73 355 4.3 7.0 0.00 0.00 0.00 85 1015.8
20260901142901 73 360 4.3 7.0 0.00 0.00 0.00 85 1015.8
20260901142826 73 336 4.3 7.0 0.00 0.00 0.00 85 1015.8
20260901142729 73 351 3.5 5.2 0.00 0.00 0.00 85 1015.8
20260901142613 73 360 3.5 5.2 0.00 0.00 0.00 85 1015.9
20260901142458 73 345 3.5 5.2 0.00 0.00 0.00 87 1015.8
20260901142406 73 355 2.6 6.1 0.00 0.00 0.00 87 1015.8
20260901142312 73 342 2.6 5.2 0.00 0.00 0.00 87 1015.9
20260901142157 72 315 3.5 5.2 0.00 0.00 0.00 87 1015.8
20260901142101 72 19 3.5 5.2 0.00 0.00 0.00 88 1015.9
20260901142005 72 5 3.5 5.2 0.00 0.00 0.00 88 1015.9
20260901141909 72 11 3.5 7.0 0.00 0.00 0.00 88 1015.9
20260901141758 72 360 4.3 7.0 0.00 0.00 0.00 89 1015.9
20260901141703 72 360 4.3 7.0 0.00 0.00 0.00 89 1015.9
20260901141606 72 350 3.5 7.0 0.00 0.00 0.00 90 1015.9
20260901141511 72 355 3.5 7.0 0.00 0.00 0.00 90 1015.9
20260901141355 72 355 3.5 7.0 0.00 0.00 0.00 90 1015.8
20260901141304 72 360 4.3 7.8 0.00 0.00 0.00 90 1015.9
20260901141208 72 360 4.3 7.8 0.00 0.00 0.00 91 1015.9
20260901141114 71 9 4.3 7.8 0.00 0.00 0.00 91 1015.8
20260901140958 72 360 4.3 7.8 0.00 0.00 0.00 92 1015.9
20260901140903 71 16 4.3 7.8 0.00 0.00 0.00 93 1015.9
20260901140827 71 360 4.3 7.8 0.00 0.00 0.00 93 1015.9
20260901140707 71 348 5.2 7.8 0.00 0.00 0.00 94 1015.9
20260901140556 71 347 6.1 7.8 0.00 0.00 0.00 94 1015.9
20260901140500 71 349 5.2 7.8 0.00 0.00 0.00 95 1015.9
20260901140426 71 355 4.3 7.0 0.00 0.00 0.00 95 1015.8
20260901140310 71 324 3.5 5.2 0.00 0.00 0.00 95 1015.8
20260901140154 71 18 3.5 5.2 0.00 0.00 0.00 96 1015.9
20260901140119 71 350 4.3 5.2 0.00 0.00 0.00 97 1015.9
20260901140002 71 336 3.5 5.2 0.00 0.00 0.00 97 1015.8
20260901135931 70 316 3.5 5.2 0.00 0.00 0.00 97 1015.8
20260901135814 70 340 3.5 5.2 0.00 0.00 0.00 97 1015.9
20260901135658 70 9 3.5 5.2 0.00 0.00 0.00 97 1015.9
20260901135602 70 342 3.5 5.2 0.00 0.00 0.00 97 1015.9
20260901135527 70 360 2.6 7.0 0.00 0.00 0.00 97 1015.9
20260901135410 70 316 2.6 7.0 0.00 0.00 0.00 97 1015.9
20260901135254 70 344 3.5 7.0 0.00 0.00 0.00 97 1016.0
20260901135203 70 355 3.5 7.0 0.00 0.00 0.00 98 1016.0
20260901135107 69 355 2.6 7.0 0.00 0.00 0.00 98 1016.0
20260901135033 69 360 2.6 7.0 0.00 0.00 0.00 98 1016.0
20260901134856 69 355 3.5 7.0 0.00 0.00 0.00 98 1016.0
20260901134821 69 327 4.3 7.0 0.00 0.00 0.00 98 1015.9
20260901134705 69 355 3.5 7.0 0.00 0.00 0.00 98 1015.9
20260901134609 69 338 2.6 5.2 0.00 0.00 0.00 98 1015.9
20260901134458 69 5 2.6 5.2 0.00 0.00 0.00 98 1015.9
20260901134403 69 24 1.7 5.2 0.00 0.00 0.00 98 1015.9
20260901134307 69 5 2.6 5.2 0.00 0.00 0.00 98 1015.9
20260901134212 69 9 2.6 5.2 0.00 0.00 0.00 98 1015.9
20260901134117 68 5 3.5 5.2 0.00 0.00 0.00 98 1015.9
20260901133955 68 340 4.3 5.2 0.00 0.00 0.00 98 1015.9
20260901133923 68 340 3.5 5.2 0.00 0.00 0.00 98 1015.8
20260901133808 68 330 3.5 4.3 0.00 0.00 0.00 98 1015.8
20260901133712 68 360 3.5 4.3 0.00 0.00 0.00 98 1015.8
20260901133556 68 11 3.5 4.3 0.00 0.00 0.00 98 1015.7
20260901133501 68 333 2.6 4.3 0.00 0.00 0.00 98 1015.7
20260901133427 68 322 2.6 4.3 0.00 0.00 0.00 98 1015.7
20260901133254 68 324 2.6 4.3 0.00 0.00 0.00 98 1015.6
20260901133220 68 317 2.6 4.3 0.00 0.00 0.00 98 1015.7
20260901133103 68 323 2.6 4.3 0.00 0.00 0.00 98 1015.6
20260901133007 68 334 2.6 4.3 0.00 0.00 0.00 98 1015.6
20260901132912 68 327 1.7 4.3 0.00 0.00 0.00 98 1015.6
20260901132756 68 283 1.7 2.6 0.00 0.00 0.00 98 1015.6
20260901132701 68 283 0.9 2.6 0.00 0.00 0.00 98 1015.6
20260901132610 68 283 0.9 2.6 0.00 0.00 0.00 98 1015.6
20260901132454 67 283 0.9 2.6 0.00 0.00 0.00 98 1015.6
20260901132400 67 283 1.7 2.6 0.00 0.00 0.00 98 1015.6
20260901132307 67 283 1.7 2.6 0.00 0.00 0.00 98 1015.7
20260901132209 67 283 1.7 2.6 0.00 0.00 0.00 98 1015.7
20260901132134 67 282 1.7 2.6 0.00 0.00 0.00 98 1015.6
20260901132002 67 282 0.9 2.6 0.00 0.00 0.00 99 1015.6
20260901131927 67 282 0.9 2.6 0.00 0.00 0.00 99 1015.6
20260901131754 67 280 0.9 1.7 0.00 0.00 0.00 98 1015.6
20260901131719 67 280 0.9 1.7 0.00 0.00 0.00 98 1015.6
20260901131557 67 280 0.9 1.7 0.00 0.00 0.00 99 1015.6
20260901131522 67 280 0.9 1.7 0.00 0.00 0.00 99 1015.6
20260901131425 67 280 0.9 1.7 0.00 0.00 0.00 99 1015.5
20260901131313 67 280 1.7 1.7 0.00 0.00 0.00 99 1015.5
20260901131158 67 280 1.7 1.7 0.00 0.00 0.00 99 1015.5
20260901131122 67 280 1.7 1.7 0.00 0.00 0.00 98 1015.6
20260901131006 67 280 0.9 1.7 0.00 0.00 0.00 99 1015.6
20260901130911 66 280 0.9 2.6 0.00 0.00 0.00 99 1015.5
20260901130816 66 280 0.9 2.6 0.00 0.00 0.00 99 1015.4
20260901130700 66 280 0.9 2.6 0.00 0.00 0.00 99 1015.4
20260901130629 66 280 0.9 2.6 0.00 0.00 0.00 99 1015.4
20260901130512 66 280 0.0 2.6 0.00 0.00 0.00 99 1015.4
20260901130417 66 280 0.9 3.5 0.00 0.00 0.00 99 1015.4
20260901130254 66 280 0.9 3.5 0.00 0.00 0.00 99 1015.4
20260901130200 66 280 1.7 3.5 0.00 0.00 0.00 99 1015.4
20260901130104 66 280 0.9 3.5 0.00 0.00 0.00 99 1015.4
20260901130013 66 280 0.9 3.5 0.00 0.00 0.00 99 1015.4
20260901125919 65 280 0.9 3.5 0.00 0.00 0.00 99 1015.4
20260901125756 65 279 1.7 3.5 0.00 0.00 0.00 99 1015.4
20260901125721 65 279 1.7 3.5 0.00 0.00 0.00 99 1015.3
20260901125605 65 281 0.9 3.5 0.00 0.00 0.00 99 1015.3
20260901125531 65 236 0.9 3.5 0.00 0.00 0.00 99 1015.3
20260901125434 65 236 0.9 3.5 0.00 0.00 0.00 99 1015.4
20260901125308 65 236 1.7 3.5 0.00 0.00 0.00 99 1015.4
20260901125207 65 236 1.7 3.5 0.00 0.00 0.00 99 1015.4
20260901125112 65 235 1.7 3.5 0.00 0.00 0.00 99 1015.4
20260901125017 64 235 1.7 3.5 0.00 0.00 0.00 99 1015.4
20260901124855 64 190 1.7 2.6 0.00 0.00 0.00 99 1015.5
20260901124800 64 190 0.9 2.6 0.00 0.00 0.00 99 1015.5
20260901124708 64 190 0.9 2.6 0.00 0.00 0.00 99 1015.5
20260901124613 63 190 0.9 2.6 0.00 0.00 0.00 98 1015.4
20260901124539 63 190 0.9 2.6 0.00 0.00 0.00 99 1015.5
20260901124356 63 190 0.9 2.6 0.00 0.00 0.00 98 1015.6
20260901124300 63 190 0.9 2.6 0.00 0.00 0.00 98 1015.6
20260901124225 63 190 0.9 2.6 0.00 0.00 0.00 98 1015.5
20260901124129 62 190 1.7 2.6 0.00 0.00 0.00 99 1015.5
20260901123955 62 190 0.9 2.6 0.00 0.00 0.00 98 1015.6
20260901123919 62 190 0.9 1.7 0.00 0.00 0.00 98 1015.5
20260901123803 62 190 0.9 1.7 0.00 0.00 0.00 98 1015.5
20260901123708 62 190 0.9 1.7 0.00 0.00 0.00 98 1015.5
20260901123613 61 190 0.9 1.7 0.00 0.00 0.00 98 1015.6
20260901123457 61 190 0.9 1.7 0.00 0.00 0.00 98 1015.5
20260901123423 61 190 0.9 1.7 0.00 0.00 0.00 98 1015.4
20260901123327 61 190 0.9 1.7 0.00 0.00 0.00 98 1015.4
20260901123214 61 190 0.9 1.7 0.00 0.00 0.00 98 1015.5
20260901123119 61 190 0.0 1.7 0.00 0.00 0.00 98 1015.5
20260901122956 61 190 0.0 0.9 0.00 0.00 0.00 98 1015.5
20260901122901 60 190 0.0 0.9 0.00 0.00 0.00 98 1015.5
20260901122806 60 190 0.0 0.9 0.00 0.00 0.00 98 1015.5
20260901122655 60 190 0.0 0.9 0.00 0.00 0.00 98 1015.5
20260901122600 60 190 0.0 0.9 0.00 0.00 0.00 98 1015.5
20260901122505 60 190 0.0 0.9 0.00 0.00 0.00 98 1015.5
20260901122410 60 190 0.0 0.9 0.00 0.00 0.00 98 1015.4
20260901122317 60 190 0.0 0.9 0.00 0.00 0.00 98 1015.4
20260901122154 60 190 0.0 0.0 0.00 0.00 0.00 98 1015.3
20260901122103 60 190 0.0 0.0 0.00 0.00 0.00 98 1015.4
20260901122028 60 190 0.0 0.0 0.00 0.00 0.00 98 1015.4
20260901121912 60 190 0.0 0.0 0.00 0.00 0.00 98 1015.3
20260901121817 60 190 0.0 0.0 0.00 0.00 0.00 98 1015.4
20260901121655 60 190 0.0 0.0 0.00 0.00 0.00 97 1015.3
20260901121619 59 190 0.0 0.0 0.00 0.00 0.00 97 1015.4
20260901121503 59 190 0.0 0.0 0.00 0.00 0.00 97 1015.4
20260901121427 59 190 0.0 0.0 0.00 0.00 0.00 97 1015.4
20260901121314 59 190 0.0 0.0 0.00 0.00 0.00 97 1015.4
20260901121218 59 190 0.0 0.0 0.00 0.00 0.00 97 1015.4
20260901121102 59 190 0.0 0.0 0.00 0.00 0.00 97 1015.5
20260901121027 59 190 0.0 0.0 0.00 0.00 0.00 97 1015.5
20260901120911 59 190 0.0 0.0 0.00 0.00 0.00 97 1015.4
20260901120815 59 190 0.0 0.0 0.00 0.00 0.00 97 1015.4
20260901120719 59 190 0.0 0.0 0.00 0.00 0.00 97 1015.4
20260901120602 59 190 0.0 0.0 0.00 0.00 0.00 97 1015.4
20260901120510 59 190 0.0 0.0 0.00 0.00 0.00 97 1015.4
20260901120416 59 190 0.0 0.9 0.00 0.00 0.00 97 1015.4
20260901120254 59 190 0.0 0.9 0.00 0.00 0.00 97 1015.4
20260901120219 59 190 0.0 0.9 0.00 0.00 0.00 97 1015.4
20260901120027 59 190 0.0 0.9 0.00 0.00 0.00 97 1015.3
20260901115855 59 190 0.0 0.9 0.00 0.00 0.00 97 1015.3
20260901115800 59 190 0.0 0.9 0.00 0.00 0.00 97 1015.3
20260901115706 59 190 0.0 1.7 0.00 0.00 0.00 97 1015.3
20260901115610 59 190 0.0 1.7 0.00 0.00 0.00 97 1015.2
20260901115516 59 190 0.0 1.7 0.00 0.00 0.00 97 1015.3
20260901115355 59 190 0.9 1.7 0.00 0.00 0.00 97 1015.3
20260901115306 59 190 0.9 1.7 0.00 0.00 0.00 97 1015.3
20260901115208 59 190 0.9 1.7 0.00 0.00 0.00 97 1015.3
20260901115113 59 190 0.9 1.7 0.00 0.00 0.00 97 1015.3
20260901115017 59 190 0.9 1.7 0.00 0.00 0.00 97 1015.3
20260901114855 59 190 0.9 1.7 0.00 0.00 0.00 97 1015.3
20260901114759 59 190 0.9 0.9 0.00 0.00 0.00 97 1015.3
20260901114724 59 190 0.9 0.9 0.00 0.00 0.00 97 1015.2
20260901114631 59 190 0.9 0.9 0.00 0.00 0.00 97 1015.2
20260901114515 59 190 0.9 0.9 0.00 0.00 0.00 97 1015.1
20260901114421 59 190 0.9 0.9 0.00 0.00 0.00 96 1015.1
20260901114258 59 190 0.9 0.9 0.00 0.00 0.00 97 1015.2
20260901114203 59 190 0.9 0.9 0.00 0.00 0.00 97 1015.1
20260901114107 59 190 0.0 0.9 0.00 0.00 0.00 97 1015.1
20260901113956 59 190 0.0 0.0 0.00 0.00 0.00 97 1015.1
20260901113921 59 190 0.0 0.0 0.00 0.00 0.00 97 1015.2
20260901113805 59 190 0.0 0.0 0.00 0.00 0.00 97 1015.2
20260901113710 59 190 0.0 0.0 0.00 0.00 0.00 97 1015.2
20260901113617 59 190 0.0 0.0 0.00 0.00 0.00 97 1015.1
20260901113454 59 190 0.0 0.0 0.00 0.00 0.00 97 1015.1
20260901113359 59 190 0.0 0.0 0.00 0.00 0.00 97 1015.1
20260901113308 59 190 0.0 0.0 0.00 0.00 0.00 97 1015.1
20260901113212 59 190 0.0 0.0 0.00 0.00 0.00 97 1015.1
20260901113117 59 190 0.0 0.0 0.00 0.00 0.00 97 1015.1
20260901113000 59 190 0.0 0.0 0.00 0.00 0.00 97 1015.1
20260901112906 59 190 0.0 0.0 0.00 0.00 0.00 97 1015.1
20260901112810 59 190 0.0 0.0 0.00 0.00 0.00 97 1015.0
20260901112719 59 190 0.0 0.0 0.00 0.00 0.00 97 1015.1
20260901112603 59 190 0.0 0.0 0.00 0.00 0.00 97 1015.0
20260901112508 59 190 0.0 0.9 0.00 0.00 0.00 97 1015.0
20260901112413 59 190 0.0 0.9 0.00 0.00 0.00 97 1015.0
20260901112317 59 190 0.0 0.9 0.00 0.00 0.00 97 1015.0
20260901112201 59 190 0.0 0.9 0.00 0.00 0.00 97 1015.0
20260901112106 59 190 0.0 0.9 0.00 0.00 0.00 97 1015.0
20260901112015 59 190 0.0 0.9 0.00 0.00 0.00 97 1015.0
20260901111942 59 190 0.0 0.9 0.00 0.00 0.00 97 1015.0
20260901111758 59 190 0.0 0.9 0.00 0.00 0.00 96 1015.0
20260901111703 59 190 0.9 1.7 0.00 0.00 0.00 97 1015.0
20260901111608 59 190 0.9 1.7 0.00 0.00 0.00 97 1015.0
20260901111513 59 190 0.9 1.7 0.00 0.00 0.00 97 1014.9
20260901111402 59 190 0.9 1.7 0.00 0.00 0.00 97 1015.0
20260901111307 59 190 0.9 1.7 0.00 0.00 0.00 97 1015.0
20260901111212 59 190 0.9 1.7 0.00 0.00 0.00 97 1014.9
20260901111117 59 190 0.9 1.7 0.00 0.00 0.00 97 1014.9
20260901110954 59 190 0.9 1.7 0.00 0.00 0.00 97 1014.7
20260901110859 59 190 0.9 0.9 0.00 0.00 0.00 97 1014.7
20260901110809 59 190 0.9 0.9 0.00 0.00 0.00 97 1014.7
20260901110713 59 190 0.9 0.9 0.00 0.00 0.00 97 1014.7
20260901110618 59 190 0.0 0.9 0.00 0.00 0.00 97 1014.8
20260901110502 59 190 0.0 0.0 0.00 0.00 0.00 97 1014.8
20260901110407 59 190 0.0 0.0 0.00 0.00 0.00 97 1014.8
20260901110312 59 190 0.0 0.0 0.00 0.00 0.00 97 1014.8
20260901110200 59 190 0.0 0.0 0.00 0.00 0.00 97 1014.8
20260901110105 59 190 0.0 0.0 0.00 0.00 0.00 97 1014.8
20260901110011 59 190 0.0 0.0 0.00 0.00 0.00 97 1014.7
20260901105916 59 190 0.0 0.0 0.00 0.00 0.00 97 1014.8
20260901105754 59 190 0.0 0.0 0.00 0.00 0.00 97 1014.8
20260901105659 59 190 0.0 0.0 0.00 0.00 0.00 97 1014.6
20260901105608 59 190 0.0 0.0 0.00 0.00 0.00 97 1014.6
20260901105513 59 190 0.0 0.9 0.00 0.00 0.00 97 1014.7
20260901105357 59 190 0.0 0.9 0.00 0.00 0.00 97 1014.7
20260901105305 59 190 0.0 0.9 0.00 0.00 0.00 97 1014.7
20260901105227 59 190 0.0 0.9 0.00 0.00 0.00 97 1014.7
20260901105111 59 190 0.0 0.9 0.00 0.00 0.00 97 1014.8
20260901105000 59 190 0.0 0.9 0.00 0.00 0.00 97 1014.8
20260901104905 59 190 0.0 1.7 0.00 0.00 0.00 97 1014.8
20260901104810 59 190 0.0 1.7 0.00 0.00 0.00 97 1014.8
20260901104716 59 190 0.9 1.7 0.00 0.00 0.00 97 1014.8
20260901104554 59 190 0.9 2.6 0.00 0.00 0.00 96 1014.8
20260901104459 60 190 0.9 2.6 0.00 0.00 0.00 96 1014.8
20260901104428 60 190 0.9 2.6 0.00 0.00 0.00 96 1014.8
20260901104312 60 190 0.9 2.6 0.00 0.00 0.00 96 1014.8
20260901104218 60 190 0.9 2.6 0.00 0.00 0.00 96 1014.7
20260901104056 60 190 1.7 2.6 0.00 0.00 0.00 96 1014.7
20260901104002 60 190 1.7 2.6 0.00 0.00 0.00 96 1014.7
20260901103927 60 190 1.7 2.6 0.00 0.00 0.00 97 1014.7
20260901103809 60 190 1.7 2.6 0.00 0.00 0.00 97 1014.7
20260901103718 60 190 1.7 1.7 0.00 0.00 0.00 97 1014.7
20260901103556 60 244 0.9 2.6 0.00 0.00 0.00 97 1014.7
20260901103501 60 244 0.9 2.6 0.00 0.00 0.00 97 1014.6
20260901103406 60 244 0.0 2.6 0.00 0.00 0.00 97 1014.6
20260901103330 60 244 0.0 2.6 0.00 0.00 0.00 97 1014.6
20260901103214 60 244 0.9 2.6 0.00 0.00 0.00 97 1014.6
20260901103103 60 244 0.9 2.6 0.00 0.00 0.00 97 1014.5
20260901103008 60 244 1.7 2.6 0.00 0.00 0.00 97 1014.5
20260901102912 60 244 1.7 2.6 0.00 0.00 0.00 97 1014.5
20260901102757 60 244 1.7 2.6 0.00 0.00 0.00 97 1014.6